Wetterdaten: Sonntag, 16.05.2010
Datum Zeit Temp. Innen Temp. Aussen UV X Diff Temp. Feuchte Inne Feuchte Auss Sonnenschein Luftdruck Regen ab 0,1 Wind Sonnenschein Windben
16.05.2010 00:00 16,5 C 9,6 C 0,0 UV-I 0,0 C 49 % 76 % 0 % 1012,6 hPa 0,0 l/m 0,4 km/h (0 Bft) 0 min 0,0 km/h (0 Bft)
16.05.2010 00:04 16,5 C 9,5 C 0,0 UV-I 0,0 C 50 % 76 % 0 % 1012,6 hPa 0,0 l/m 0,4 km/h (0 Bft) 0 min 0,0 km/h (0 Bft)
16.05.2010 00:08 16,4 C 9,5 C 0,0 UV-I 0,0 C 50 % 76 % 0 % 1012,6 hPa 0,0 l/m 0,4 km/h (0 Bft) 0 min 0,0 km/h (0 Bft)
16.05.2010 00:10 16,5 C 9,5 C 0,0 UV-I 0,0 C 50 % 76 % 0 % 1012,6 hPa 0,0 l/m 0,4 km/h (0 Bft) 0 min 0,0 km/h (0 Bft)
16.05.2010 00:12 16,5 C 9,5 C 0,0 UV-I 0,0 C 50 % 77 % 0 % 1012,9 hPa 0,0 l/m 0,4 km/h (0 Bft) 0 min 12,6 km/h (3 Bft)
16.05.2010 00:14 16,4 C 9,4 C 0,0 UV-I 0,0 C 50 % 77 % 0 % 1012,9 hPa 0,0 l/m 0,8 km/h (0 Bft) 0 min 0,0 km/h (0 Bft)
16.05.2010 00:16 16,4 C 9,3 C 0,0 UV-I 0,0 C 50 % 77 % 0 % 1012,9 hPa 0,0 l/m 0,4 km/h (0 Bft) 0 min 0,0 km/h (0 Bft)
16.05.2010 00:18 16,4 C 9,3 C 0,0 UV-I 0,0 C 50 % 78 % 0 % 1012,9 hPa 0,0 l/m 0,8 km/h (0 Bft) 0 min 3,2 km/h (1 Bft)
16.05.2010 00:22 16,4 C 9,3 C 0,0 UV-I 0,0 C 50 % 78 % 0 % 1012,9 hPa 0,0 l/m 1,2 km/h (1 Bft) 0 min 12,6 km/h (3 Bft)
16.05.2010 00:24 16,4 C 9,2 C 0,0 UV-I 0,0 C 50 % 78 % 0 % 1012,9 hPa 0,0 l/m 0,4 km/h (0 Bft) 0 min 0,0 km/h (0 Bft)
16.05.2010 00:26 16,4 C 9,3 C 0,0 UV-I 0,0 C 50 % 78 % 0 % 1012,9 hPa 0,0 l/m 0,4 km/h (0 Bft) 0 min 0,0 km/h (0 Bft)
16.05.2010 00:28 16,4 C 9,2 C 0,0 UV-I 0,0 C 50 % 78 % 0 % 1012,9 hPa 0,0 l/m 0,4 km/h (0 Bft) 0 min 0,0 km/h (0 Bft)
16.05.2010 00:32 16,4 C 9,1 C 0,0 UV-I 0,0 C 50 % 78 % 0 % 1012,9 hPa 0,0 l/m 0,0 km/h (0 Bft) 0 min 0,0 km/h (0 Bft)
16.05.2010 00:34 16,4 C 9,1 C 0,0 UV-I 0,0 C 50 % 78 % 0 % 1012,9 hPa 0,0 l/m 0,4 km/h (0 Bft) 0 min 4,5 km/h (1 Bft)
16.05.2010 00:36 16,4 C 9,1 C 0,0 UV-I 0,0 C 50 % 79 % 0 % 1012,9 hPa 0,0 l/m 0,8 km/h (0 Bft) 0 min 5,8 km/h (2 Bft)
16.05.2010 00:38 16,4 C 9,1 C 0,0 UV-I 0,0 C 50 % 79 % 0 % 1012,9 hPa 0,0 l/m 1,6 km/h (1 Bft) 0 min 3,2 km/h (1 Bft)
16.05.2010 00:44 16,2 C 9,1 C 0,0 UV-I 0,0 C 50 % 79 % 0 % 1012,9 hPa 0,0 l/m 1,6 km/h (1 Bft) 0 min 0,0 km/h (0 Bft)
16.05.2010 00:46 16,4 C 9,0 C 0,0 UV-I 0,0 C 50 % 79 % 0 % 1012,9 hPa 0,0 l/m 1,6 km/h (1 Bft) 0 min 0,0 km/h (0 Bft)
16.05.2010 00:48 16,4 C 8,9 C 0,0 UV-I 0,0 C 50 % 79 % 0 % 1012,9 hPa 0,0 l/m 1,2 km/h (1 Bft) 0 min 0,0 km/h (0 Bft)
16.05.2010 00:52 16,2 C 8,8 C 0,0 UV-I 0,0 C 50 % 79 % 0 % 1013,1 hPa 0,0 l/m 0,0 km/h (0 Bft) 0 min 5,1 km/h (1 Bft)
16.05.2010 00:54 16,2 C 8,9 C 0,0 UV-I 0,0 C 50 % 79 % 0 % 1013,1 hPa 0,0 l/m 0,4 km/h (0 Bft) 0 min 0,0 km/h (0 Bft)
16.05.2010 00:56 16,2 C 8,8 C 0,0 UV-I 0,0 C 50 % 80 % 0 % 1013,1 hPa 0,0 l/m 0,4 km/h (0 Bft) 0 min 0,0 km/h (0 Bft)
16.05.2010 01:00 16,3 C 8,7 C 0,0 UV-I 0,0 C 50 % 80 % 0 % 1013,1 hPa 0,0 l/m 0,8 km/h (0 Bft) 0 min 3,2 km/h (1 Bft)
16.05.2010 01:04 16,3 C 8,7 C 0,0 UV-I 0,0 C 50 % 80 % 0 % 1013,1 hPa 0,0 l/m 1,2 km/h (1 Bft) 0 min 7,4 km/h (2 Bft)
16.05.2010 01:06 16,3 C 8,7 C 0,0 UV-I 0,0 C 50 % 81 % 0 % 1013,1 hPa 0,0 l/m 1,2 km/h (1 Bft) 0 min 3,5 km/h (1 Bft)
16.05.2010 01:10 16,3 C 8,7 C 0,0 UV-I 0,0 C 50 % 81 % 0 % 1013,1 hPa 0,0 l/m 1,2 km/h (1 Bft) 0 min 0,0 km/h (0 Bft)
16.05.2010 01:14 16,3 C 8,7 C 0,0 UV-I 0,0 C 50 % 81 % 0 % 1013,4 hPa 0,0 l/m 0,4 km/h (0 Bft) 0 min 0,0 km/h (0 Bft)
16.05.2010 01:16 16,2 C 8,7 C 0,0 UV-I 0,0 C 50 % 81 % 0 % 1013,4 hPa 0,0 l/m 0,8 km/h (0 Bft) 0 min 3,2 km/h (1 Bft)
16.05.2010 01:18 16,3 C 8,7 C 0,0 UV-I 0,0 C 50 % 81 % 0 % 1013,4 hPa 0,0 l/m 0,8 km/h (0 Bft) 0 min 0,0 km/h (0 Bft)
16.05.2010 01:20 16,2 C 8,7 C 0,0 UV-I 0,0 C 50 % 81 % 0 % 1013,4 hPa 0,0 l/m 0,8 km/h (0 Bft) 0 min 5,1 km/h (1 Bft)
16.05.2010 01:22 16,2 C 8,6 C 0,0 UV-I 0,0 C 50 % 81 % 0 % 1013,4 hPa 0,0 l/m 0,8 km/h (0 Bft) 0 min 3,2 km/h (1 Bft)
16.05.2010 01:24 16,2 C 8,6 C 0,0 UV-I 0,0 C 51 % 81 % 0 % 1013,4 hPa 0,0 l/m 0,8 km/h (0 Bft) 0 min 0,0 km/h (0 Bft)
16.05.2010 01:28 16,2 C 8,6 C 0,0 UV-I 0,0 C 51 % 81 % 0 % 1013,4 hPa 0,0 l/m 0,8 km/h (0 Bft) 0 min 3,9 km/h (1 Bft)
16.05.2010 01:34 16,2 C 8,6 C 0,0 UV-I 0,0 C 51 % 82 % 0 % 1013,3 hPa 0,0 l/m 1,2 km/h (1 Bft) 0 min 3,2 km/h (1 Bft)
16.05.2010 01:38 16,2 C 8,7 C 0,0 UV-I 0,0 C 51 % 83 % 0 % 1013,3 hPa 0,0 l/m 1,6 km/h (1 Bft) 0 min 5,5 km/h (1 Bft)
16.05.2010 01:43 16,2 C 8,7 C 0,0 UV-I 0,0 C 51 % 83 % 0 % 1013,3 hPa 0,0 l/m 1,6 km/h (1 Bft) 0 min 3,5 km/h (1 Bft)
16.05.2010 01:48 16,2 C 8,7 C 0,0 UV-I 0,0 C 51 % 83 % 0 % 1013,3 hPa 0,0 l/m 1,6 km/h (1 Bft) 0 min 12,6 km/h (3 Bft)
16.05.2010 01:53 16,2 C 8,7 C 0,0 UV-I 0,0 C 51 % 84 % 0 % 1013,3 hPa 0,0 l/m 2,0 km/h (1 Bft) 0 min 9,7 km/h (2 Bft)
16.05.2010 01:58 16,2 C 8,7 C 0,0 UV-I 0,0 C 51 % 84 % 0 % 1013,3 hPa 0,0 l/m 2,8 km/h (1 Bft) 0 min 5,1 km/h (1 Bft)
16.05.2010 02:03 16,2 C 8,7 C 0,0 UV-I 0,0 C 51 % 84 % 0 % 1013,3 hPa 0,0 l/m 2,8 km/h (1 Bft) 0 min 0,0 km/h (0 Bft)
16.05.2010 02:08 16,2 C 8,8 C 0,0 UV-I 0,0 C 51 % 84 % 0 % 1013,3 hPa 0,0 l/m 2,4 km/h (1 Bft) 0 min 0,0 km/h (0 Bft)
16.05.2010 02:13 16,1 C 8,8 C 0,0 UV-I 0,0 C 51 % 84 % 0 % 1013,1 hPa 0,0 l/m 1,6 km/h (1 Bft) 0 min 0,0 km/h (0 Bft)
16.05.2010 02:18 16,1 C 8,9 C 0,0 UV-I 0,0 C 51 % 85 % 0 % 1013,1 hPa 0,0 l/m 2,8 km/h (1 Bft) 0 min 5,1 km/h (1 Bft)
16.05.2010 02:23 16,1 C 8,9 C 0,0 UV-I 0,0 C 51 % 85 % 0 % 1013,1 hPa 0,0 l/m 3,2 km/h (1 Bft) 0 min 3,5 km/h (1 Bft)
16.05.2010 02:28 16,1 C 8,8 C 0,0 UV-I 0,0 C 51 % 85 % 0 % 1013,1 hPa 0,0 l/m 4,4 km/h (1 Bft) 0 min 4,8 km/h (1 Bft)
16.05.2010 02:33 16,1 C 8,8 C 0,0 UV-I 0,0 C 51 % 85 % 0 % 1013,0 hPa 0,0 l/m 4,0 km/h (1 Bft) 0 min 0,0 km/h (0 Bft)
16.05.2010 02:38 16,1 C 8,8 C 0,0 UV-I 0,0 C 52 % 86 % 0 % 1013,0 hPa 0,0 l/m 3,2 km/h (1 Bft) 0 min 6,4 km/h (2 Bft)
16.05.2010 02:43 16,1 C 8,9 C 0,0 UV-I 0,0 C 51 % 86 % 0 % 1013,0 hPa 0,0 l/m 3,6 km/h (1 Bft) 0 min 4,5 km/h (1 Bft)
16.05.2010 02:48 16,1 C 8,9 C 0,0 UV-I 0,0 C 52 % 86 % 0 % 1013,0 hPa 0,0 l/m 4,4 km/h (1 Bft) 0 min 6,1 km/h (2 Bft)
16.05.2010 02:53 16,1 C 8,9 C 0,0 UV-I 0,0 C 52 % 86 % 0 % 1013,2 hPa 0,0 l/m 3,6 km/h (1 Bft) 0 min 4,5 km/h (1 Bft)
16.05.2010 02:58 15,9 C 8,9 C 0,0 UV-I 0,0 C 52 % 86 % 0 % 1013,2 hPa 0,0 l/m 2,4 km/h (1 Bft) 0 min 0,0 km/h (0 Bft)
16.05.2010 03:03 15,9 C 8,9 C 0,0 UV-I 0,0 C 52 % 86 % 0 % 1013,2 hPa 0,0 l/m 2,4 km/h (1 Bft) 0 min 6,1 km/h (2 Bft)
16.05.2010 03:08 15,9 C 8,8 C 0,0 UV-I 0,0 C 52 % 86 % 0 % 1013,2 hPa 0,0 l/m 1,2 km/h (1 Bft) 0 min 0,0 km/h (0 Bft)
16.05.2010 03:13 15,9 C 8,8 C 0,0 UV-I 0,0 C 52 % 86 % 0 % 1013,2 hPa 0,0 l/m 0,8 km/h (0 Bft) 0 min 0,0 km/h (0 Bft)
16.05.2010 03:18 16,0 C 8,9 C 0,0 UV-I 0,0 C 52 % 86 % 0 % 1013,2 hPa 0,0 l/m 0,8 km/h (0 Bft) 0 min 0,0 km/h (0 Bft)
16.05.2010 03:23 16,0 C 8,8 C 0,0 UV-I 0,0 C 52 % 86 % 0 % 1013,2 hPa 0,0 l/m 0,8 km/h (0 Bft) 0 min 3,5 km/h (1 Bft)
16.05.2010 03:28 16,0 C 8,8 C 0,0 UV-I 0,0 C 52 % 86 % 0 % 1013,2 hPa 0,0 l/m 1,2 km/h (1 Bft) 0 min 3,5 km/h (1 Bft)
16.05.2010 03:33 16,0 C 8,8 C 0,0 UV-I 0,0 C 52 % 87 % 0 % 1013,6 hPa 0,0 l/m 1,2 km/h (1 Bft) 0 min 4,8 km/h (1 Bft)
16.05.2010 03:38 16,0 C 8,8 C 0,0 UV-I 0,0 C 52 % 87 % 0 % 1013,6 hPa 0,0 l/m 2,0 km/h (1 Bft) 0 min 8,7 km/h (2 Bft)
16.05.2010 03:43 16,0 C 8,8 C 0,0 UV-I 0,0 C 52 % 87 % 0 % 1013,6 hPa 0,0 l/m 2,8 km/h (1 Bft) 0 min 4,8 km/h (1 Bft)
16.05.2010 03:48 16,0 C 8,8 C 0,0 UV-I 0,0 C 52 % 87 % 0 % 1013,6 hPa 0,0 l/m 3,6 km/h (1 Bft) 0 min 0,0 km/h (0 Bft)
16.05.2010 03:53 16,0 C 8,8 C 0,0 UV-I 0,0 C 52 % 87 % 0 % 1013,6 hPa 0,0 l/m 4,4 km/h (1 Bft) 0 min 10,0 km/h (2 Bft)
16.05.2010 03:58 16,0 C 8,8 C 0,0 UV-I 0,0 C 53 % 87 % 0 % 1013,6 hPa 0,0 l/m 3,6 km/h (1 Bft) 0 min 0,0 km/h (0 Bft)
16.05.2010 04:03 16,0 C 8,7 C 0,0 UV-I 0,0 C 53 % 87 % 0 % 1013,6 hPa 0,0 l/m 2,4 km/h (1 Bft) 0 min 0,0 km/h (0 Bft)
16.05.2010 04:08 15,8 C 8,7 C 0,0 UV-I 0,0 C 53 % 87 % 0 % 1013,6 hPa 0,0 l/m 2,0 km/h (1 Bft) 0 min 4,5 km/h (1 Bft)
16.05.2010 04:13 15,8 C 8,7 C 0,0 UV-I 0,0 C 53 % 87 % 0 % 1013,6 hPa 0,0 l/m 2,4 km/h (1 Bft) 0 min 0,0 km/h (0 Bft)
16.05.2010 04:18 15,8 C 8,6 C 0,0 UV-I 0,0 C 53 % 87 % 0 % 1013,6 hPa 0,0 l/m 3,6 km/h (1 Bft) 0 min 0,0 km/h (0 Bft)
16.05.2010 04:19 15,8 C 8,6 C 0,0 UV-I 0,0 C 53 % 87 % 0 % 1013,6 hPa 0,0 l/m 3,6 km/h (1 Bft) 0 min 0,0 km/h (0 Bft)
16.05.2010 04:22 15,8 C 8,6 C 0,0 UV-I 0,0 C 53 % 87 % 0 % 1013,6 hPa 0,0 l/m 4,0 km/h (1 Bft) 0 min 7,7 km/h (2 Bft)
16.05.2010 04:24 15,8 C 8,6 C 0,0 UV-I 0,0 C 53 % 87 % 0 % 1013,6 hPa 0,0 l/m 3,6 km/h (1 Bft) 0 min 3,5 km/h (1 Bft)
16.05.2010 04:26 15,8 C 8,7 C 0,0 UV-I 0,0 C 53 % 87 % 0 % 1013,6 hPa 0,0 l/m 3,6 km/h (1 Bft) 0 min 3,5 km/h (1 Bft)
16.05.2010 04:28 15,9 C 8,7 C 0,0 UV-I 0,0 C 53 % 87 % 0 % 1013,6 hPa 0,0 l/m 2,8 km/h (1 Bft) 0 min 0,0 km/h (0 Bft)
16.05.2010 04:30 15,8 C 8,7 C 0,0 UV-I 0,0 C 53 % 87 % 0 % 1013,6 hPa 0,0 l/m 2,8 km/h (1 Bft) 0 min 0,0 km/h (0 Bft)
16.05.2010 04:32 15,9 C 8,7 C 0,0 UV-I 0,0 C 53 % 87 % 0 % 1013,4 hPa 0,0 l/m 2,8 km/h (1 Bft) 0 min 4,5 km/h (1 Bft)
16.05.2010 04:34 15,9 C 8,7 C 0,0 UV-I 0,0 C 53 % 87 % 0 % 1013,4 hPa 0,0 l/m 2,0 km/h (1 Bft) 0 min 0,0 km/h (0 Bft)
16.05.2010 04:36 15,9 C 8,6 C 0,0 UV-I 0,0 C 53 % 87 % 0 % 1013,4 hPa 0,0 l/m 2,0 km/h (1 Bft) 0 min 0,0 km/h (0 Bft)
16.05.2010 04:38 15,9 C 8,6 C 0,0 UV-I 0,0 C 53 % 87 % 0 % 1013,4 hPa 0,0 l/m 2,0 km/h (1 Bft) 0 min 3,2 km/h (1 Bft)
16.05.2010 04:40 15,9 C 8,5 C 0,0 UV-I 0,0 C 53 % 87 % 0 % 1013,4 hPa 0,0 l/m 2,0 km/h (1 Bft) 0 min 0,0 km/h (0 Bft)
16.05.2010 04:42 15,9 C 8,5 C 0,0 UV-I 0,0 C 53 % 87 % 0 % 1013,4 hPa 0,0 l/m 2,0 km/h (1 Bft) 0 min 5,8 km/h (2 Bft)
16.05.2010 04:44 15,8 C 8,5 C 0,0 UV-I 0,0 C 53 % 87 % 0 % 1013,4 hPa 0,0 l/m 1,6 km/h (1 Bft) 0 min 0,0 km/h (0 Bft)
16.05.2010 04:46 15,8 C 8,5 C 0,0 UV-I 0,0 C 53 % 87 % 0 % 1013,4 hPa 0,0 l/m 1,2 km/h (1 Bft) 0 min 0,0 km/h (0 Bft)
16.05.2010 04:48 15,8 C 8,5 C 0,0 UV-I 0,0 C 53 % 87 % 0 % 1013,4 hPa 0,0 l/m 1,6 km/h (1 Bft) 0 min 3,5 km/h (1 Bft)
16.05.2010 04:50 15,8 C 8,4 C 0,0 UV-I 0,0 C 53 % 87 % 0 % 1013,4 hPa 0,0 l/m 1,6 km/h (1 Bft) 0 min 0,0 km/h (0 Bft)
16.05.2010 04:52 15,8 C 8,5 C 0,0 UV-I 0,0 C 53 % 87 % 0 % 1013,2 hPa 0,0 l/m 1,6 km/h (1 Bft) 0 min 6,4 km/h (2 Bft)
16.05.2010 04:54 15,8 C 8,5 C 0,0 UV-I 0,0 C 53 % 87 % 0 % 1013,2 hPa 0,0 l/m 1,2 km/h (1 Bft) 0 min 0,0 km/h (0 Bft)
16.05.2010 04:56 15,8 C 8,5 C 0,0 UV-I 0,0 C 53 % 87 % 0 % 1013,2 hPa 0,0 l/m 2,0 km/h (1 Bft) 0 min 4,2 km/h (1 Bft)
16.05.2010 04:58 15,8 C 8,4 C 0,0 UV-I 0,0 C 53 % 87 % 0 % 1013,2 hPa 0,0 l/m 2,0 km/h (1 Bft) 0 min 4,5 km/h (1 Bft)
16.05.2010 05:00 15,8 C 8,4 C 0,0 UV-I 0,0 C 53 % 87 % 0 % 1013,2 hPa 0,0 l/m 1,6 km/h (1 Bft) 0 min 3,2 km/h (1 Bft)
16.05.2010 05:02 15,8 C 8,4 C 0,0 UV-I 0,0 C 53 % 87 % 0 % 1013,2 hPa 0,0 l/m 2,4 km/h (1 Bft) 0 min 7,4 km/h (2 Bft)
16.05.2010 05:04 15,8 C 8,4 C 0,0 UV-I 0,0 C 53 % 87 % 0 % 1013,2 hPa 0,0 l/m 2,4 km/h (1 Bft) 0 min 7,4 km/h (2 Bft)
16.05.2010 05:06 15,8 C 8,4 C 0,0 UV-I 0,0 C 53 % 87 % 0 % 1013,2 hPa 0,0 l/m 2,8 km/h (1 Bft) 0 min 5,5 km/h (1 Bft)
16.05.2010 05:08 15,8 C 8,5 C 0,0 UV-I 0,0 C 53 % 86 % 0 % 1013,2 hPa 0,0 l/m 2,8 km/h (1 Bft) 0 min 0,0 km/h (0 Bft)
16.05.2010 05:10 15,8 C 8,5 C 0,0 UV-I 0,0 C 53 % 86 % 0 % 1013,2 hPa 0,0 l/m 2,4 km/h (1 Bft) 0 min 15,4 km/h (3 Bft)
16.05.2010 05:12 15,8 C 8,5 C 0,0 UV-I 0,0 C 53 % 86 % 0 % 1013,2 hPa 0,0 l/m 3,2 km/h (1 Bft) 0 min 0,0 km/h (0 Bft)
16.05.2010 05:14 15,8 C 8,5 C 0,0 UV-I 0,0 C 53 % 86 % 0 % 1013,2 hPa 0,0 l/m 2,4 km/h (1 Bft) 0 min 0,0 km/h (0 Bft)
16.05.2010 05:16 15,6 C 8,5 C 0,0 UV-I 0,0 C 53 % 86 % 0 % 1013,2 hPa 0,0 l/m 2,0 km/h (1 Bft) 0 min 0,0 km/h (0 Bft)
16.05.2010 05:18 15,8 C 8,5 C 0,0 UV-I 0,0 C 53 % 86 % 0 % 1013,2 hPa 0,0 l/m 2,0 km/h (1 Bft) 0 min 6,8 km/h (2 Bft)
16.05.2010 05:20 15,6 C 8,4 C 0,0 UV-I 0,0 C 53 % 86 % 0 % 1013,2 hPa 0,0 l/m 2,0 km/h (1 Bft) 0 min 0,0 km/h (0 Bft)
16.05.2010 05:22 15,6 C 8,5 C 0,0 UV-I 0,0 C 53 % 86 % 0 % 1013,2 hPa 0,0 l/m 1,2 km/h (1 Bft) 0 min 3,9 km/h (1 Bft)
16.05.2010 05:24 15,6 C 8,5 C 0,0 UV-I 0,0 C 53 % 86 % 0 % 1013,2 hPa 0,0 l/m 1,2 km/h (1 Bft) 0 min 0,0 km/h (0 Bft)
16.05.2010 05:26 15,6 C 8,5 C 0,0 UV-I 0,0 C 53 % 86 % 0 % 1013,2 hPa 0,0 l/m 1,6 km/h (1 Bft) 0 min 4,5 km/h (1 Bft)
16.05.2010 05:28 15,7 C 8,4 C 0,0 UV-I 0,0 C 53 % 86 % 0 % 1013,2 hPa 0,0 l/m 1,6 km/h (1 Bft) 0 min 0,0 km/h (0 Bft)
16.05.2010 05:30 15,7 C 8,4 C 0,0 UV-I 0,0 C 53 % 86 % 0 % 1013,2 hPa 0,0 l/m 1,2 km/h (1 Bft) 0 min 0,0 km/h (0 Bft)
16.05.2010 05:32 15,7 C 8,4 C 0,0 UV-I 0,0 C 53 % 86 % 0 % 1013,5 hPa 0,0 l/m 1,2 km/h (1 Bft) 0 min 3,5 km/h (1 Bft)
16.05.2010 05:34 15,6 C 8,4 C 0,0 UV-I 0,0 C 53 % 85 % 0 % 1013,5 hPa 0,0 l/m 2,0 km/h (1 Bft) 0 min 4,2 km/h (1 Bft)
16.05.2010 05:36 15,7 C 8,4 C 0,0 UV-I 0,0 C 53 % 86 % 0 % 1013,5 hPa 0,0 l/m 3,2 km/h (1 Bft) 0 min 6,1 km/h (2 Bft)
16.05.2010 05:40 15,6 C 8,4 C 0,0 UV-I 0,0 C 54 % 85 % 0 % 1013,5 hPa 0,0 l/m 3,2 km/h (1 Bft) 0 min 6,8 km/h (2 Bft)
16.05.2010 05:42 15,6 C 8,5 C 0,0 UV-I 0,0 C 54 % 85 % 0 % 1013,5 hPa 0,0 l/m 3,2 km/h (1 Bft) 0 min 4,8 km/h (1 Bft)
16.05.2010 05:44 15,6 C 8,4 C 0,0 UV-I 0,0 C 53 % 85 % 0 % 1013,5 hPa 0,0 l/m 3,2 km/h (1 Bft) 0 min 0,0 km/h (0 Bft)
16.05.2010 05:46 15,6 C 8,4 C 0,0 UV-I 0,0 C 54 % 85 % 0 % 1013,5 hPa 0,0 l/m 2,4 km/h (1 Bft) 0 min 0,0 km/h (0 Bft)
16.05.2010 05:48 15,6 C 8,4 C 0,0 UV-I 0,0 C 54 % 85 % 0 % 1013,5 hPa 0,0 l/m 2,0 km/h (1 Bft) 0 min 0,0 km/h (0 Bft)
16.05.2010 05:50 15,6 C 8,4 C 0,0 UV-I 0,0 C 54 % 85 % 0 % 1013,5 hPa 0,0 l/m 2,0 km/h (1 Bft) 0 min 3,5 km/h (1 Bft)
16.05.2010 05:52 15,6 C 8,4 C 0,0 UV-I 0,0 C 54 % 85 % 0 % 1013,2 hPa 0,0 l/m 2,0 km/h (1 Bft) 0 min 0,0 km/h (0 Bft)
16.05.2010 05:54 15,6 C 8,4 C 0,0 UV-I 0,0 C 54 % 85 % 0 % 1013,2 hPa 0,0 l/m 1,6 km/h (1 Bft) 0 min 3,2 km/h (1 Bft)
16.05.2010 05:56 15,6 C 8,5 C 0,0 UV-I 0,0 C 54 % 85 % 0 % 1013,2 hPa 0,0 l/m 1,6 km/h (1 Bft) 0 min 0,0 km/h (0 Bft)
16.05.2010 06:00 15,6 C 8,4 C 0,0 UV-I 0,0 C 54 % 85 % 0 % 1013,2 hPa 0,0 l/m 1,2 km/h (1 Bft) 0 min 0,0 km/h (0 Bft)
16.05.2010 06:02 15,6 C 8,4 C 0,0 UV-I 0,0 C 54 % 85 % 0 % 1013,2 hPa 0,0 l/m 1,2 km/h (1 Bft) 0 min 3,5 km/h (1 Bft)
16.05.2010 06:04 15,6 C 8,4 C 0,0 UV-I 0,0 C 54 % 85 % 0 % 1013,2 hPa 0,0 l/m 1,2 km/h (1 Bft) 0 min 3,5 km/h (1 Bft)
16.05.2010 06:06 15,6 C 8,4 C 0,0 UV-I 0,0 C 54 % 85 % 0 % 1013,2 hPa 0,0 l/m 0,8 km/h (0 Bft) 0 min 0,0 km/h (0 Bft)
16.05.2010 06:08 15,6 C 8,4 C 0,0 UV-I 0,0 C 54 % 85 % 0 % 1013,2 hPa 0,0 l/m 0,8 km/h (0 Bft) 0 min 0,0 km/h (0 Bft)
16.05.2010 06:10 15,6 C 8,4 C 0,0 UV-I 0,0 C 54 % 85 % 0 % 1013,2 hPa 0,0 l/m 1,2 km/h (1 Bft) 0 min 0,0 km/h (0 Bft)
16.05.2010 06:12 15,6 C 8,4 C 0,0 UV-I 0,0 C 54 % 85 % 0 % 1013,4 hPa 0,0 l/m 1,6 km/h (1 Bft) 0 min 8,0 km/h (2 Bft)
16.05.2010 06:14 15,6 C 8,4 C 0,0 UV-I 0,0 C 54 % 85 % 0 % 1013,4 hPa 0,0 l/m 1,2 km/h (1 Bft) 0 min 0,0 km/h (0 Bft)
16.05.2010 06:16 15,6 C 8,3 C 0,0 UV-I 0,0 C 54 % 84 % 0 % 1013,4 hPa 0,0 l/m 2,0 km/h (1 Bft) 0 min 6,1 km/h (2 Bft)
16.05.2010 06:18 15,6 C 8,4 C 0,0 UV-I 0,0 C 54 % 85 % 0 % 1013,4 hPa 0,0 l/m 2,0 km/h (1 Bft) 0 min 0,0 km/h (0 Bft)
16.05.2010 06:20 15,6 C 8,4 C 0,0 UV-I 0,0 C 54 % 85 % 0 % 1013,4 hPa 0,0 l/m 2,0 km/h (1 Bft) 0 min 0,0 km/h (0 Bft)
16.05.2010 06:22 15,6 C 8,4 C 0,0 UV-I 0,0 C 54 % 84 % 0 % 1013,4 hPa 0,0 l/m 2,0 km/h (1 Bft) 0 min 0,0 km/h (0 Bft)
16.05.2010 06:24 15,6 C 8,4 C 0,0 UV-I 0,0 C 54 % 84 % 0 % 1013,4 hPa 0,0 l/m 2,0 km/h (1 Bft) 0 min 7,4 km/h (2 Bft)
16.05.2010 06:26 15,6 C 8,4 C 0,0 UV-I 0,0 C 54 % 84 % 0 % 1013,4 hPa 0,0 l/m 2,0 km/h (1 Bft) 0 min 3,9 km/h (1 Bft)
16.05.2010 06:28 15,6 C 8,4 C 0,0 UV-I 0,0 C 54 % 84 % 0 % 1013,4 hPa 0,0 l/m 1,6 km/h (1 Bft) 0 min 0,0 km/h (0 Bft)
16.05.2010 06:34 15,6 C 8,4 C 0,0 UV-I 0,0 C 54 % 84 % 0 % 1013,4 hPa 0,0 l/m 1,6 km/h (1 Bft) 0 min 0,0 km/h (0 Bft)
16.05.2010 06:36 15,6 C 8,4 C 0,0 UV-I 0,0 C 54 % 84 % 0 % 1013,4 hPa 0,0 l/m 0,8 km/h (0 Bft) 0 min 3,9 km/h (1 Bft)
16.05.2010 06:38 15,6 C 8,4 C 0,0 UV-I 0,0 C 54 % 84 % 0 % 1013,4 hPa 0,0 l/m 0,4 km/h (0 Bft) 0 min 0,0 km/h (0 Bft)
16.05.2010 06:42 15,4 C 8,4 C 0,0 UV-I 0,0 C 54 % 85 % 0 % 1013,4 hPa 0,0 l/m 0,4 km/h (0 Bft) 0 min 0,0 km/h (0 Bft)
16.05.2010 06:44 15,6 C 8,4 C 0,0 UV-I 0,0 C 54 % 84 % 0 % 1013,4 hPa 0,0 l/m 0,8 km/h (0 Bft) 0 min 4,2 km/h (1 Bft)
16.05.2010 06:46 15,4 C 8,4 C 0,0 UV-I 0,0 C 54 % 85 % 0 % 1013,4 hPa 0,0 l/m 1,2 km/h (1 Bft) 0 min 3,5 km/h (1 Bft)
16.05.2010 06:48 15,6 C 8,4 C 0,0 UV-I 0,0 C 54 % 85 % 0 % 1013,4 hPa 0,0 l/m 1,2 km/h (1 Bft) 0 min 4,2 km/h (1 Bft)
16.05.2010 06:50 15,6 C 8,4 C 0,0 UV-I 0,0 C 54 % 85 % 0 % 1013,4 hPa 0,0 l/m 1,6 km/h (1 Bft) 0 min 4,2 km/h (1 Bft)
16.05.2010 06:52 15,4 C 8,4 C 0,0 UV-I 0,0 C 54 % 85 % 0 % 1014,2 hPa 0,0 l/m 1,6 km/h (1 Bft) 0 min 0,0 km/h (0 Bft)
16.05.2010 06:54 15,6 C 8,4 C 0,0 UV-I 0,0 C 54 % 85 % 0 % 1014,2 hPa 0,0 l/m 1,6 km/h (1 Bft) 0 min 0,0 km/h (0 Bft)
16.05.2010 06:56 15,6 C 8,4 C 0,1 UV-I 0,0 C 54 % 85 % 0 % 1014,2 hPa 0,0 l/m 0,8 km/h (0 Bft) 0 min 0,0 km/h (0 Bft)
16.05.2010 06:58 15,4 C 8,4 C 0,1 UV-I 0,0 C 54 % 85 % 0 % 1014,2 hPa 0,0 l/m 1,2 km/h (1 Bft) 0 min 3,9 km/h (1 Bft)
16.05.2010 07:00 15,6 C 8,4 C 0,1 UV-I 0,0 C 54 % 85 % 0 % 1014,2 hPa 0,0 l/m 1,2 km/h (1 Bft) 0 min 0,0 km/h (0 Bft)
16.05.2010 07:02 15,6 C 8,4 C 0,3 UV-I 0,0 C 54 % 85 % 0 % 1014,2 hPa 0,0 l/m 1,2 km/h (1 Bft) 0 min 5,8 km/h (2 Bft)
16.05.2010 07:04 15,6 C 8,4 C 0,3 UV-I 0,0 C 54 % 85 % 0 % 1014,2 hPa 0,0 l/m 1,2 km/h (1 Bft) 0 min 0,0 km/h (0 Bft)
16.05.2010 07:06 15,6 C 8,4 C 0,6 UV-I 0,0 C 54 % 85 % 0 % 1014,2 hPa 0,0 l/m 1,2 km/h (1 Bft) 0 min 0,0 km/h (0 Bft)
16.05.2010 07:08 15,6 C 8,4 C 0,6 UV-I 0,0 C 54 % 84 % 0 % 1014,2 hPa 0,0 l/m 0,8 km/h (0 Bft) 0 min 0,0 km/h (0 Bft)
16.05.2010 07:10 15,6 C 8,4 C 0,6 UV-I 0,0 C 54 % 84 % 0 % 1014,2 hPa 0,0 l/m 0,4 km/h (0 Bft) 0 min 0,0 km/h (0 Bft)
16.05.2010 07:12 15,6 C 8,5 C 0,4 UV-I 0,0 C 54 % 84 % 0 % 1014,2 hPa 0,0 l/m 0,8 km/h (0 Bft) 0 min 5,1 km/h (1 Bft)
16.05.2010 07:14 15,6 C 8,5 C 0,4 UV-I 0,0 C 54 % 84 % 0 % 1014,2 hPa 0,0 l/m 0,4 km/h (0 Bft) 0 min 3,5 km/h (1 Bft)
16.05.2010 07:16 15,6 C 8,5 C 0,5 UV-I 0,0 C 54 % 84 % 0 % 1014,2 hPa 0,0 l/m 0,4 km/h (0 Bft) 0 min 0,0 km/h (0 Bft)
16.05.2010 07:18 15,6 C 8,5 C 0,5 UV-I 0,0 C 54 % 84 % 0 % 1014,2 hPa 0,0 l/m 0,4 km/h (0 Bft) 0 min 0,0 km/h (0 Bft)
16.05.2010 07:20 15,6 C 8,6 C 0,5 UV-I 0,0 C 54 % 84 % 0 % 1014,2 hPa 0,0 l/m 0,4 km/h (0 Bft) 0 min 0,0 km/h (0 Bft)
16.05.2010 07:22 15,6 C 8,6 C 1,1 UV-I 0,0 C 54 % 84 % 0 % 1014,2 hPa 0,0 l/m 0,4 km/h (0 Bft) 0 min 0,0 km/h (0 Bft)
16.05.2010 07:24 15,6 C 8,7 C 1,1 UV-I 0,0 C 54 % 84 % 0 % 1014,2 hPa 0,0 l/m 0,4 km/h (0 Bft) 0 min 4,8 km/h (1 Bft)
16.05.2010 07:28 15,6 C 8,7 C 1,2 UV-I 0,0 C 54 % 84 % 0 % 1014,2 hPa 0,0 l/m 0,4 km/h (0 Bft) 0 min 0,0 km/h (0 Bft)
16.05.2010 07:32 15,6 C 8,7 C 1,3 UV-I 0,0 C 54 % 84 % 0 % 1014,1 hPa 0,0 l/m 0,4 km/h (0 Bft) 0 min 3,5 km/h (1 Bft)
16.05.2010 07:34 15,6 C 8,7 C 1,3 UV-I 0,0 C 54 % 84 % 0 % 1014,1 hPa 0,0 l/m 0,8 km/h (0 Bft) 0 min 0,0 km/h (0 Bft)
16.05.2010 07:36 15,6 C 8,7 C 1,3 UV-I 0,0 C 54 % 84 % 0 % 1014,1 hPa 0,0 l/m 0,4 km/h (0 Bft) 0 min 0,0 km/h (0 Bft)
16.05.2010 07:38 15,6 C 8,7 C 1,3 UV-I 0,0 C 54 % 84 % 0 % 1014,1 hPa 0,0 l/m 0,4 km/h (0 Bft) 0 min 0,0 km/h (0 Bft)
16.05.2010 07:40 15,6 C 8,7 C 1,3 UV-I 0,0 C 54 % 84 % 0 % 1014,1 hPa 0,0 l/m 0,4 km/h (0 Bft) 0 min 0,0 km/h (0 Bft)
16.05.2010 07:44 15,6 C 8,7 C 1,6 UV-I 0,0 C 54 % 84 % 0 % 1014,1 hPa 0,0 l/m 0,4 km/h (0 Bft) 0 min 0,0 km/h (0 Bft)
16.05.2010 07:46 15,6 C 8,6 C 1,6 UV-I 0,1 C 54 % 84 % 3 % 1014,1 hPa 0,0 l/m 0,4 km/h (0 Bft) 0 min 0,0 km/h (0 Bft)
16.05.2010 07:48 15,6 C 8,6 C 1,6 UV-I 0,2 C 54 % 84 % 6 % 1014,1 hPa 0,0 l/m 0,4 km/h (0 Bft) 0 min 0,0 km/h (0 Bft)
16.05.2010 07:50 15,6 C 8,6 C 1,6 UV-I 0,2 C 54 % 84 % 6 % 1014,1 hPa 0,0 l/m 0,4 km/h (0 Bft) 0 min 0,0 km/h (0 Bft)
16.05.2010 07:54 15,6 C 8,7 C 1,7 UV-I 0,3 C 54 % 84 % 9 % 1014,4 hPa 0,0 l/m 0,8 km/h (0 Bft) 0 min 5,1 km/h (1 Bft)
16.05.2010 07:56 15,6 C 8,7 C 2,0 UV-I 0,3 C 54 % 84 % 9 % 1014,4 hPa 0,0 l/m 0,4 km/h (0 Bft) 0 min 0,0 km/h (0 Bft)
16.05.2010 07:58 15,6 C 8,7 C 2,0 UV-I 0,4 C 54 % 84 % 11 % 1014,4 hPa 0,0 l/m 0,4 km/h (0 Bft) 0 min 0,0 km/h (0 Bft)
16.05.2010 08:00 15,6 C 8,8 C 2,0 UV-I 0,3 C 54 % 84 % 9 % 1014,4 hPa 0,0 l/m 0,4 km/h (0 Bft) 0 min 0,0 km/h (0 Bft)
16.05.2010 08:02 15,6 C 8,9 C 1,8 UV-I 0,4 C 54 % 83 % 11 % 1014,4 hPa 0,0 l/m 1,2 km/h (1 Bft) 0 min 4,8 km/h (1 Bft)
16.05.2010 08:04 15,6 C 8,8 C 1,8 UV-I 0,5 C 54 % 84 % 14 % 1014,4 hPa 0,0 l/m 1,2 km/h (1 Bft) 0 min 0,0 km/h (0 Bft)
16.05.2010 08:06 15,6 C 8,9 C 2,2 UV-I 0,5 C 54 % 84 % 14 % 1014,4 hPa 0,0 l/m 1,6 km/h (1 Bft) 0 min 4,2 km/h (1 Bft)
16.05.2010 08:08 15,6 C 8,9 C 2,2 UV-I 0,6 C 54 % 83 % 17 % 1014,4 hPa 0,0 l/m 2,0 km/h (1 Bft) 0 min 4,8 km/h (1 Bft)
16.05.2010 08:10 15,6 C 8,9 C 2,2 UV-I 0,6 C 54 % 83 % 17 % 1014,4 hPa 0,0 l/m 2,0 km/h (1 Bft) 0 min 6,8 km/h (2 Bft)
16.05.2010 08:12 15,6 C 8,9 C 2,1 UV-I 0,7 C 54 % 83 % 20 % 1014,3 hPa 0,0 l/m 2,0 km/h (1 Bft) 0 min 0,0 km/h (0 Bft)
16.05.2010 08:14 15,6 C 9,0 C 2,1 UV-I 0,8 C 54 % 83 % 23 % 1014,3 hPa 0,0 l/m 2,4 km/h (1 Bft) 0 min 9,0 km/h (2 Bft)
16.05.2010 08:16 15,6 C 9,0 C 2,2 UV-I 0,8 C 54 % 83 % 23 % 1014,3 hPa 0,0 l/m 2,0 km/h (1 Bft) 0 min 0,0 km/h (0 Bft)
16.05.2010 08:18 15,6 C 9,1 C 2,2 UV-I 0,8 C 54 % 83 % 23 % 1014,3 hPa 0,0 l/m 1,6 km/h (1 Bft) 0 min 0,0 km/h (0 Bft)
16.05.2010 08:20 15,6 C 9,1 C 2,2 UV-I 1,0 C 54 % 83 % 29 % 1014,3 hPa 0,0 l/m 2,4 km/h (1 Bft) 0 min 7,1 km/h (2 Bft)
16.05.2010 08:22 15,6 C 9,1 C 2,5 UV-I 1,1 C 54 % 83 % 31 % 1014,3 hPa 0,0 l/m 2,4 km/h (1 Bft) 0 min 3,5 km/h (1 Bft)
16.05.2010 08:26 15,6 C 9,2 C 2,6 UV-I 1,2 C 54 % 83 % 34 % 1014,3 hPa 0,0 l/m 2,4 km/h (1 Bft) 0 min 3,5 km/h (1 Bft)
16.05.2010 08:28 15,6 C 9,3 C 2,6 UV-I 1,2 C 54 % 83 % 34 % 1014,3 hPa 0,0 l/m 2,4 km/h (1 Bft) 0 min 3,5 km/h (1 Bft)
16.05.2010 08:30 15,6 C 9,2 C 2,6 UV-I 1,4 C 54 % 83 % 40 % 1014,3 hPa 0,0 l/m 2,4 km/h (1 Bft) 0 min 3,2 km/h (1 Bft)
16.05.2010 08:32 15,6 C 9,3 C 2,8 UV-I 1,4 C 54 % 83 % 40 % 1014,4 hPa 0,0 l/m 1,6 km/h (1 Bft) 0 min 3,2 km/h (1 Bft)
16.05.2010 08:34 15,6 C 9,3 C 2,8 UV-I 1,5 C 54 % 82 % 43 % 1014,4 hPa 0,0 l/m 1,6 km/h (1 Bft) 0 min 0,0 km/h (0 Bft)
16.05.2010 08:36 15,6 C 9,3 C 2,9 UV-I 1,6 C 54 % 82 % 46 % 1014,4 hPa 0,0 l/m 2,0 km/h (1 Bft) 0 min 6,4 km/h (2 Bft)
16.05.2010 08:40 15,6 C 9,5 C 2,9 UV-I 1,5 C 54 % 82 % 43 % 1014,4 hPa 0,0 l/m 2,0 km/h (1 Bft) 0 min 0,0 km/h (0 Bft)
16.05.2010 08:42 15,6 C 9,4 C 3,2 UV-I 1,8 C 54 % 82 % 51 % 1014,4 hPa 0,0 l/m 2,0 km/h (1 Bft) 0 min 0,0 km/h (0 Bft)
16.05.2010 08:44 15,6 C 9,5 C 3,2 UV-I 1,9 C 54 % 82 % 54 % 1014,4 hPa 0,0 l/m 1,6 km/h (1 Bft) 0 min 0,0 km/h (0 Bft)
16.05.2010 08:46 15,6 C 9,5 C 3,2 UV-I 2,0 C 54 % 82 % 57 % 1014,4 hPa 0,0 l/m 1,6 km/h (1 Bft) 0 min 0,0 km/h (0 Bft)
16.05.2010 08:48 15,6 C 9,6 C 3,2 UV-I 1,9 C 54 % 82 % 54 % 1014,4 hPa 0,0 l/m 0,8 km/h (0 Bft) 0 min 0,0 km/h (0 Bft)
16.05.2010 08:52 15,6 C 9,7 C 3,5 UV-I 2,1 C 54 % 81 % 60 % 1014,7 hPa 0,0 l/m 1,6 km/h (1 Bft) 0 min 6,1 km/h (2 Bft)
16.05.2010 08:54 15,6 C 9,9 C 3,5 UV-I 2,6 C 54 % 80 % 74 % 1014,7 hPa 0,0 l/m 2,4 km/h (1 Bft) 0 min 5,5 km/h (1 Bft)
16.05.2010 08:56 15,6 C 9,9 C 4,6 UV-I 3,3 C 54 % 81 % 94 % 1014,7 hPa 0,0 l/m 2,0 km/h (1 Bft) 2 min 0,0 km/h (0 Bft)
16.05.2010 08:58 15,6 C 10,1 C 4,6 UV-I 4,3 C 54 % 81 % 100 % 1014,7 hPa 0,0 l/m 2,0 km/h (1 Bft) 2 min 0,0 km/h (0 Bft)
16.05.2010 09:00 15,6 C 10,3 C 4,6 UV-I 4,7 C 54 % 80 % 100 % 1014,7 hPa 0,0 l/m 2,0 km/h (1 Bft) 2 min 4,8 km/h (1 Bft)
16.05.2010 09:02 15,6 C 10,3 C 4,5 UV-I 5,0 C 54 % 79 % 100 % 1014,7 hPa 0,0 l/m 1,6 km/h (1 Bft) 2 min 0,0 km/h (0 Bft)
16.05.2010 09:04 15,6 C 10,4 C 4,5 UV-I 5,3 C 54 % 79 % 100 % 1014,7 hPa 0,0 l/m 1,6 km/h (1 Bft) 2 min 0,0 km/h (0 Bft)
16.05.2010 09:06 15,6 C 10,7 C 5,6 UV-I 5,7 C 54 % 78 % 100 % 1014,7 hPa 0,0 l/m 1,2 km/h (1 Bft) 2 min 4,5 km/h (1 Bft)
16.05.2010 09:08 15,7 C 10,9 C 5,6 UV-I 6,3 C 54 % 77 % 100 % 1014,7 hPa 0,0 l/m 1,6 km/h (1 Bft) 2 min 4,8 km/h (1 Bft)
16.05.2010 09:10 15,6 C 10,9 C 5,6 UV-I 6,7 C 54 % 77 % 100 % 1014,7 hPa 0,0 l/m 2,4 km/h (1 Bft) 2 min 5,5 km/h (1 Bft)
16.05.2010 09:12 15,7 C 11,1 C 5,4 UV-I 6,6 C 54 % 76 % 100 % 1014,9 hPa 0,0 l/m 2,8 km/h (1 Bft) 2 min 6,8 km/h (2 Bft)
16.05.2010 09:18 15,8 C 11,5 C 6,7 UV-I 6,9 C 54 % 75 % 100 % 1014,9 hPa 0,0 l/m 3,6 km/h (1 Bft) 2 min 9,3 km/h (2 Bft)
16.05.2010 09:20 15,8 C 11,5 C 6,7 UV-I 7,3 C 54 % 74 % 100 % 1014,9 hPa 0,0 l/m 4,0 km/h (1 Bft) 2 min 9,7 km/h (2 Bft)
16.05.2010 09:22 15,8 C 11,7 C 8,1 UV-I 7,3 C 54 % 73 % 100 % 1014,9 hPa 0,0 l/m 4,4 km/h (1 Bft) 2 min 7,1 km/h (2 Bft)
16.05.2010 09:26 15,8 C 11,8 C 7,1 UV-I 6,9 C 53 % 74 % 100 % 1014,9 hPa 0,0 l/m 4,4 km/h (1 Bft) 2 min 8,4 km/h (2 Bft)
16.05.2010 09:28 15,9 C 11,9 C 7,1 UV-I 6,6 C 53 % 72 % 100 % 1014,9 hPa 0,0 l/m 5,2 km/h (1 Bft) 2 min 6,1 km/h (2 Bft)
16.05.2010 09:32 15,9 C 12,0 C 6,0 UV-I 5,6 C 53 % 70 % 100 % 1015,0 hPa 0,0 l/m 5,6 km/h (1 Bft) 2 min 8,4 km/h (2 Bft)
16.05.2010 09:34 15,8 C 12,0 C 6,0 UV-I 5,3 C 53 % 69 % 100 % 1015,0 hPa 0,0 l/m 5,2 km/h (1 Bft) 2 min 7,4 km/h (2 Bft)
16.05.2010 09:36 16,0 C 12,1 C 6,9 UV-I 5,0 C 53 % 70 % 100 % 1015,0 hPa 0,0 l/m 4,8 km/h (1 Bft) 2 min 0,0 km/h (0 Bft)
16.05.2010 09:38 16,0 C 12,1 C 6,9 UV-I 5,1 C 53 % 69 % 100 % 1015,0 hPa 0,0 l/m 4,4 km/h (1 Bft) 2 min 0,0 km/h (0 Bft)
16.05.2010 09:40 16,0 C 12,2 C 6,9 UV-I 5,1 C 53 % 68 % 100 % 1015,0 hPa 0,0 l/m 4,0 km/h (1 Bft) 2 min 6,4 km/h (2 Bft)
16.05.2010 09:46 16,0 C 12,4 C 10,4 UV-I 5,5 C 53 % 68 % 100 % 1015,0 hPa 0,0 l/m 3,6 km/h (1 Bft) 2 min 5,1 km/h (1 Bft)
16.05.2010 09:48 16,0 C 12,5 C 10,4 UV-I 5,8 C 53 % 67 % 100 % 1015,0 hPa 0,0 l/m 4,0 km/h (1 Bft) 2 min 5,5 km/h (1 Bft)
16.05.2010 09:54 16,1 C 12,8 C 11,4 UV-I 6,9 C 53 % 66 % 100 % 1014,9 hPa 0,0 l/m 3,6 km/h (1 Bft) 2 min 8,4 km/h (2 Bft)
16.05.2010 09:58 16,1 C 13,2 C 11,6 UV-I 6,9 C 53 % 63 % 100 % 1014,9 hPa 0,0 l/m 5,2 km/h (1 Bft) 2 min 12,2 km/h (2 Bft)
16.05.2010 10:02 16,1 C 13,3 C 10,8 UV-I 6,8 C 52 % 61 % 100 % 1014,9 hPa 0,0 l/m 6,4 km/h (2 Bft) 2 min 10,3 km/h (2 Bft)
16.05.2010 10:06 16,1 C 13,3 C 10,5 UV-I 6,0 C 52 % 61 % 100 % 1014,9 hPa 0,0 l/m 8,4 km/h (2 Bft) 2 min 13,5 km/h (3 Bft)
16.05.2010 10:10 16,2 C 13,5 C 10,5 UV-I 6,2 C 52 % 61 % 100 % 1014,9 hPa 0,0 l/m 8,4 km/h (2 Bft) 2 min 8,4 km/h (2 Bft)
16.05.2010 10:12 16,2 C 13,5 C 11,6 UV-I 6,0 C 52 % 62 % 100 % 1015,1 hPa 0,0 l/m 8,4 km/h (2 Bft) 2 min 12,2 km/h (2 Bft)
16.05.2010 10:16 16,2 C 13,5 C 11,8 UV-I 6,0 C 52 % 62 % 100 % 1015,1 hPa 0,0 l/m 7,2 km/h (2 Bft) 2 min 9,0 km/h (2 Bft)
16.05.2010 10:22 16,2 C 13,7 C 12,9 UV-I 6,4 C 52 % 62 % 100 % 1015,1 hPa 0,0 l/m 6,0 km/h (2 Bft) 2 min 5,8 km/h (2 Bft)
16.05.2010 10:34 16,3 C 14,2 C 12,9 UV-I 6,8 C 52 % 59 % 100 % 1015,2 hPa 0,0 l/m 6,8 km/h (2 Bft) 2 min 18,0 km/h (3 Bft)
16.05.2010 10:40 16,3 C 14,3 C 12,1 UV-I 6,5 C 52 % 57 % 100 % 1015,2 hPa 0,0 l/m 6,8 km/h (2 Bft) 2 min 6,4 km/h (2 Bft)
16.05.2010 10:46 16,2 C 14,4 C 12,4 UV-I 6,6 C 51 % 57 % 100 % 1015,2 hPa 0,0 l/m 8,0 km/h (2 Bft) 2 min 8,7 km/h (2 Bft)
16.05.2010 10:50 16,4 C 14,4 C 12,4 UV-I 6,7 C 51 % 56 % 100 % 1015,2 hPa 0,0 l/m 8,4 km/h (2 Bft) 2 min 9,7 km/h (2 Bft)
16.05.2010 10:52 16,4 C 14,5 C 12,5 UV-I 6,7 C 51 % 57 % 100 % 1015,0 hPa 0,0 l/m 8,4 km/h (2 Bft) 2 min 21,2 km/h (4 Bft)
16.05.2010 10:54 16,4 C 14,7 C 12,5 UV-I 6,5 C 51 % 58 % 100 % 1015,0 hPa 0,0 l/m 7,2 km/h (2 Bft) 2 min 8,0 km/h (2 Bft)
16.05.2010 10:58 16,4 C 14,7 C 12,3 UV-I 5,7 C 51 % 55 % 100 % 1015,0 hPa 0,0 l/m 7,6 km/h (2 Bft) 2 min 7,4 km/h (2 Bft)
16.05.2010 11:03 16,4 C 14,4 C 5,1 UV-I 4,6 C 51 % 57 % 100 % 1015,0 hPa 0,0 l/m 6,8 km/h (2 Bft) 2 min 6,1 km/h (2 Bft)
16.05.2010 11:08 16,5 C 14,6 C 6,2 UV-I 4,4 C 51 % 58 % 100 % 1015,0 hPa 0,0 l/m 6,4 km/h (2 Bft) 2 min 7,1 km/h (2 Bft)
16.05.2010 11:13 16,5 C 14,7 C 6,9 UV-I 4,0 C 51 % 58 % 100 % 1015,2 hPa 0,0 l/m 6,8 km/h (2 Bft) 2 min 5,8 km/h (2 Bft)
16.05.2010 11:18 16,6 C 14,8 C 6,9 UV-I 4,2 C 51 % 58 % 100 % 1015,2 hPa 0,0 l/m 5,6 km/h (1 Bft) 2 min 4,8 km/h (1 Bft)
16.05.2010 11:23 16,6 C 14,9 C 9,1 UV-I 5,0 C 51 % 56 % 100 % 1015,2 hPa 0,0 l/m 5,6 km/h (1 Bft) 2 min 8,4 km/h (2 Bft)
16.05.2010 11:28 16,7 C 15,3 C 12,3 UV-I 5,6 C 51 % 56 % 100 % 1015,2 hPa 0,0 l/m 6,0 km/h (2 Bft) 2 min 6,1 km/h (2 Bft)
16.05.2010 11:33 16,7 C 15,2 C 9,0 UV-I 5,4 C 51 % 55 % 100 % 1015,6 hPa 0,0 l/m 5,6 km/h (1 Bft) 2 min 4,2 km/h (1 Bft)
16.05.2010 11:38 16,7 C 15,1 C 5,6 UV-I 4,3 C 51 % 56 % 100 % 1015,6 hPa 0,0 l/m 6,0 km/h (2 Bft) 2 min 4,8 km/h (1 Bft)
16.05.2010 11:43 16,8 C 15,1 C 4,6 UV-I 3,8 C 51 % 56 % 100 % 1015,6 hPa 0,0 l/m 5,2 km/h (1 Bft) 2 min 4,5 km/h (1 Bft)
16.05.2010 11:48 16,8 C 15,3 C 8,4 UV-I 4,7 C 51 % 55 % 100 % 1015,6 hPa 0,0 l/m 6,4 km/h (2 Bft) 2 min 11,3 km/h (2 Bft)
16.05.2010 11:53 16,8 C 15,3 C 10,0 UV-I 4,9 C 51 % 52 % 100 % 1015,6 hPa 0,0 l/m 8,8 km/h (2 Bft) 2 min 6,4 km/h (2 Bft)
16.05.2010 11:58 16,9 C 15,2 C 7,3 UV-I 4,2 C 50 % 52 % 100 % 1015,6 hPa 0,0 l/m 7,2 km/h (2 Bft) 2 min 6,4 km/h (2 Bft)
16.05.2010 12:03 16,9 C 15,5 C 8,0 UV-I 4,3 C 50 % 52 % 100 % 1015,6 hPa 0,0 l/m 6,4 km/h (2 Bft) 2 min 8,4 km/h (2 Bft)
16.05.2010 12:08 17,0 C 16,0 C 9,7 UV-I 5,7 C 50 % 50 % 100 % 1015,6 hPa 0,0 l/m 7,6 km/h (2 Bft) 2 min 8,7 km/h (2 Bft)
16.05.2010 12:13 17,0 C 16,1 C 10,2 UV-I 6,0 C 50 % 49 % 100 % 1015,6 hPa 0,0 l/m 8,4 km/h (2 Bft) 2 min 5,8 km/h (2 Bft)
16.05.2010 12:18 17,0 C 16,3 C 7,6 UV-I 5,1 C 50 % 49 % 100 % 1015,6 hPa 0,0 l/m 6,4 km/h (2 Bft) 2 min 6,4 km/h (2 Bft)
16.05.2010 12:23 17,0 C 16,3 C 8,0 UV-I 5,1 C 50 % 47 % 100 % 1015,6 hPa 0,0 l/m 6,8 km/h (2 Bft) 2 min 12,9 km/h (3 Bft)
16.05.2010 12:28 17,1 C 16,3 C 8,3 UV-I 5,0 C 50 % 48 % 100 % 1015,6 hPa 0,0 l/m 8,4 km/h (2 Bft) 2 min 4,5 km/h (1 Bft)
16.05.2010 12:33 17,1 C 16,3 C 6,4 UV-I 4,4 C 49 % 47 % 100 % 1015,4 hPa 0,0 l/m 7,6 km/h (2 Bft) 2 min 12,9 km/h (3 Bft)
16.05.2010 12:38 17,1 C 16,3 C 5,9 UV-I 3,7 C 49 % 48 % 100 % 1015,4 hPa 0,0 l/m 7,2 km/h (2 Bft) 2 min 6,4 km/h (2 Bft)
16.05.2010 12:43 17,2 C 16,2 C 4,7 UV-I 3,3 C 49 % 47 % 94 % 1015,4 hPa 0,0 l/m 7,2 km/h (2 Bft) 2 min 8,7 km/h (2 Bft)
16.05.2010 12:48 17,2 C 16,5 C 7,6 UV-I 4,1 C 49 % 46 % 100 % 1015,4 hPa 0,0 l/m 8,0 km/h (2 Bft) 2 min 7,4 km/h (2 Bft)
16.05.2010 12:53 17,2 C 16,7 C 8,0 UV-I 4,4 C 49 % 46 % 100 % 1015,5 hPa 0,0 l/m 8,4 km/h (2 Bft) 2 min 4,2 km/h (1 Bft)
16.05.2010 12:58 17,2 C 17,1 C 9,8 UV-I 5,3 C 49 % 47 % 100 % 1015,5 hPa 0,0 l/m 8,8 km/h (2 Bft) 2 min 4,2 km/h (1 Bft)
16.05.2010 13:03 17,3 C 17,2 C 9,3 UV-I 5,1 C 49 % 43 % 100 % 1015,5 hPa 0,0 l/m 10,0 km/h (2 Bft) 2 min 19,3 km/h (3 Bft)
16.05.2010 13:08 17,2 C 17,2 C 8,1 UV-I 5,1 C 49 % 43 % 100 % 1015,5 hPa 0,0 l/m 10,8 km/h (2 Bft) 2 min 5,8 km/h (2 Bft)
16.05.2010 13:13 17,4 C 17,2 C 8,7 UV-I 4,7 C 49 % 42 % 100 % 1015,8 hPa 0,0 l/m 11,2 km/h (2 Bft) 2 min 18,0 km/h (3 Bft)
16.05.2010 13:18 17,4 C 17,1 C 6,8 UV-I 3,8 C 48 % 45 % 100 % 1015,8 hPa 0,0 l/m 7,6 km/h (2 Bft) 2 min 3,2 km/h (1 Bft)
16.05.2010 13:23 17,4 C 17,0 C 6,8 UV-I 3,1 C 48 % 44 % 89 % 1015,8 hPa 0,0 l/m 7,2 km/h (2 Bft) 2 min 8,0 km/h (2 Bft)
16.05.2010 13:28 17,4 C 16,6 C 3,4 UV-I 2,4 C 48 % 46 % 69 % 1015,8 hPa 0,0 l/m 6,0 km/h (2 Bft) 0 min 7,7 km/h (2 Bft)
16.05.2010 13:33 17,5 C 16,6 C 3,5 UV-I 2,0 C 48 % 46 % 57 % 1015,8 hPa 0,0 l/m 6,0 km/h (2 Bft) 0 min 10,3 km/h (2 Bft)
16.05.2010 13:38 17,5 C 16,7 C 5,0 UV-I 2,6 C 48 % 48 % 74 % 1015,8 hPa 0,0 l/m 4,8 km/h (1 Bft) 0 min 5,5 km/h (1 Bft)
16.05.2010 13:43 17,6 C 16,8 C 7,3 UV-I 3,4 C 48 % 46 % 97 % 1015,8 hPa 0,0 l/m 6,0 km/h (2 Bft) 2 min 6,1 km/h (2 Bft)
16.05.2010 13:48 17,6 C 17,1 C 7,6 UV-I 3,6 C 48 % 45 % 100 % 1015,8 hPa 0,0 l/m 8,0 km/h (2 Bft) 2 min 10,0 km/h (2 Bft)
16.05.2010 13:53 17,6 C 16,8 C 5,6 UV-I 3,1 C 48 % 47 % 89 % 1015,9 hPa 0,0 l/m 7,6 km/h (2 Bft) 2 min 7,4 km/h (2 Bft)
16.05.2010 13:58 17,7 C 17,2 C 5,1 UV-I 3,1 C 48 % 45 % 89 % 1015,9 hPa 0,0 l/m 6,8 km/h (2 Bft) 2 min 16,1 km/h (3 Bft)
16.05.2010 14:03 17,8 C 17,5 C 5,1 UV-I 3,8 C 48 % 44 % 100 % 1015,9 hPa 0,0 l/m 8,4 km/h (2 Bft) 2 min 7,1 km/h (2 Bft)
16.05.2010 14:08 17,9 C 17,7 C 9,5 UV-I 4,5 C 47 % 42 % 100 % 1015,9 hPa 0,0 l/m 9,2 km/h (2 Bft) 2 min 13,2 km/h (3 Bft)
16.05.2010 14:13 18,0 C 17,5 C 6,0 UV-I 3,7 C 47 % 43 % 100 % 1016,5 hPa 0,0 l/m 8,0 km/h (2 Bft) 2 min 9,3 km/h (2 Bft)
16.05.2010 14:18 18,0 C 18,0 C 8,6 UV-I 4,4 C 47 % 43 % 100 % 1016,5 hPa 0,0 l/m 10,0 km/h (2 Bft) 2 min 10,9 km/h (2 Bft)
16.05.2010 14:23 18,2 C 18,3 C 9,9 UV-I 4,8 C 47 % 43 % 100 % 1016,5 hPa 0,0 l/m 9,2 km/h (2 Bft) 2 min 7,4 km/h (2 Bft)
16.05.2010 14:28 18,2 C 18,1 C 6,9 UV-I 4,1 C 46 % 41 % 100 % 1016,5 hPa 0,0 l/m 10,0 km/h (2 Bft) 2 min 14,5 km/h (3 Bft)
16.05.2010 14:33 18,3 C 18,1 C 7,4 UV-I 4,0 C 46 % 41 % 100 % 1017,0 hPa 0,0 l/m 10,4 km/h (2 Bft) 2 min 5,8 km/h (2 Bft)
16.05.2010 14:38 18,4 C 17,9 C 4,8 UV-I 3,0 C 46 % 43 % 86 % 1017,0 hPa 0,0 l/m 8,8 km/h (2 Bft) 2 min 4,5 km/h (1 Bft)
16.05.2010 14:43 18,4 C 17,9 C 5,1 UV-I 2,8 C 46 % 42 % 80 % 1017,0 hPa 0,0 l/m 9,6 km/h (2 Bft) 0 min 7,4 km/h (2 Bft)
16.05.2010 14:48 18,4 C 17,8 C 5,1 UV-I 2,8 C 46 % 43 % 80 % 1017,0 hPa 0,0 l/m 8,8 km/h (2 Bft) 0 min 9,0 km/h (2 Bft)
16.05.2010 14:53 18,5 C 17,9 C 5,9 UV-I 2,6 C 46 % 43 % 74 % 1016,8 hPa 0,0 l/m 7,2 km/h (2 Bft) 0 min 7,7 km/h (2 Bft)
16.05.2010 14:58 18,5 C 17,7 C 5,6 UV-I 3,0 C 45 % 43 % 86 % 1016,8 hPa 0,0 l/m 6,4 km/h (2 Bft) 2 min 4,8 km/h (1 Bft)
16.05.2010 15:03 18,6 C 17,5 C 3,4 UV-I 2,5 C 45 % 44 % 71 % 1016,8 hPa 0,0 l/m 8,4 km/h (2 Bft) 0 min 3,9 km/h (1 Bft)
16.05.2010 15:08 18,5 C 17,2 C 2,5 UV-I 1,8 C 45 % 45 % 51 % 1016,8 hPa 0,0 l/m 7,2 km/h (2 Bft) 0 min 5,5 km/h (1 Bft)
16.05.2010 15:13 18,6 C 17,3 C 3,0 UV-I 1,9 C 46 % 46 % 54 % 1016,6 hPa 0,0 l/m 6,4 km/h (2 Bft) 0 min 11,3 km/h (2 Bft)
16.05.2010 15:18 18,7 C 17,5 C 7,8 UV-I 3,4 C 45 % 45 % 97 % 1016,6 hPa 0,0 l/m 7,2 km/h (2 Bft) 2 min 4,2 km/h (1 Bft)
16.05.2010 15:23 18,7 C 17,5 C 3,8 UV-I 2,7 C 45 % 44 % 77 % 1016,6 hPa 0,0 l/m 8,4 km/h (2 Bft) 0 min 7,7 km/h (2 Bft)
16.05.2010 15:28 18,7 C 17,4 C 3,6 UV-I 2,2 C 45 % 43 % 63 % 1016,6 hPa 0,0 l/m 8,0 km/h (2 Bft) 0 min 5,1 km/h (1 Bft)
16.05.2010 15:33 18,7 C 17,3 C 3,9 UV-I 2,1 C 45 % 44 % 60 % 1016,9 hPa 0,0 l/m 6,8 km/h (2 Bft) 0 min 0,0 km/h (0 Bft)
16.05.2010 15:38 18,7 C 17,2 C 3,5 UV-I 1,7 C 45 % 44 % 49 % 1016,9 hPa 0,0 l/m 7,2 km/h (2 Bft) 0 min 3,2 km/h (1 Bft)
16.05.2010 15:43 18,7 C 17,5 C 3,5 UV-I 1,3 C 45 % 43 % 37 % 1016,9 hPa 0,0 l/m 9,2 km/h (2 Bft) 0 min 20,3 km/h (4 Bft)
16.05.2010 15:48 18,8 C 17,8 C 7,1 UV-I 2,5 C 45 % 43 % 71 % 1016,9 hPa 0,0 l/m 10,4 km/h (2 Bft) 0 min 11,6 km/h (2 Bft)
16.05.2010 15:53 19,0 C 18,0 C 7,5 UV-I 3,2 C 45 % 41 % 91 % 1017,2 hPa 0,0 l/m 11,6 km/h (2 Bft) 2 min 6,8 km/h (2 Bft)
16.05.2010 15:58 19,1 C 18,0 C 7,0 UV-I 2,9 C 44 % 41 % 83 % 1017,2 hPa 0,0 l/m 10,0 km/h (2 Bft) 2 min 7,4 km/h (2 Bft)
16.05.2010 16:03 19,1 C 18,3 C 5,9 UV-I 2,5 C 44 % 42 % 71 % 1017,2 hPa 0,0 l/m 7,6 km/h (2 Bft) 0 min 6,4 km/h (2 Bft)
16.05.2010 16:08 19,2 C 18,4 C 8,2 UV-I 3,2 C 44 % 41 % 91 % 1017,2 hPa 0,0 l/m 7,6 km/h (2 Bft) 2 min 9,7 km/h (2 Bft)
16.05.2010 16:13 19,4 C 18,6 C 9,2 UV-I 4,0 C 43 % 40 % 100 % 1018,4 hPa 0,0 l/m 8,4 km/h (2 Bft) 2 min 7,7 km/h (2 Bft)
16.05.2010 16:18 19,5 C 18,6 C 7,3 UV-I 3,6 C 43 % 41 % 100 % 1018,4 hPa 0,0 l/m 8,0 km/h (2 Bft) 2 min 19,0 km/h (3 Bft)
16.05.2010 16:23 19,6 C 18,4 C 8,2 UV-I 3,7 C 43 % 41 % 100 % 1018,4 hPa 0,0 l/m 11,6 km/h (2 Bft) 2 min 21,2 km/h (4 Bft)
16.05.2010 16:28 19,7 C 18,3 C 8,6 UV-I 3,3 C 43 % 43 % 94 % 1018,4 hPa 0,0 l/m 12,8 km/h (3 Bft) 2 min 8,4 km/h (2 Bft)
16.05.2010 16:33 19,7 C 18,1 C 5,9 UV-I 2,8 C 43 % 43 % 80 % 1018,1 hPa 0,0 l/m 10,0 km/h (2 Bft) 0 min 7,7 km/h (2 Bft)
16.05.2010 16:38 19,7 C 18,2 C 5,6 UV-I 2,7 C 43 % 42 % 77 % 1018,1 hPa 0,0 l/m 8,4 km/h (2 Bft) 0 min 8,7 km/h (2 Bft)
16.05.2010 16:43 19,8 C 18,4 C 8,5 UV-I 3,2 C 42 % 40 % 91 % 1018,1 hPa 0,0 l/m 8,8 km/h (2 Bft) 2 min 10,0 km/h (2 Bft)
16.05.2010 16:48 19,8 C 18,2 C 4,9 UV-I 2,7 C 42 % 41 % 77 % 1018,1 hPa 0,0 l/m 8,0 km/h (2 Bft) 0 min 10,3 km/h (2 Bft)
16.05.2010 16:53 19,8 C 18,1 C 4,9 UV-I 2,7 C 42 % 42 % 77 % 1018,0 hPa 0,0 l/m 6,4 km/h (2 Bft) 0 min 4,8 km/h (1 Bft)
16.05.2010 16:58 19,8 C 18,4 C 6,1 UV-I 3,0 C 42 % 44 % 86 % 1018,0 hPa 0,0 l/m 7,2 km/h (2 Bft) 2 min 9,7 km/h (2 Bft)
16.05.2010 17:04 20,0 C 18,6 C 8,4 UV-I 3,4 C 42 % 44 % 97 % 1018,0 hPa 0,0 l/m 8,8 km/h (2 Bft) 2 min 12,6 km/h (3 Bft)
16.05.2010 17:06 20,0 C 18,6 C 8,4 UV-I 3,4 C 42 % 44 % 97 % 1018,0 hPa 0,0 l/m 8,8 km/h (2 Bft) 2 min 12,6 km/h (3 Bft)
16.05.2010 17:08 20,0 C 18,7 C 8,4 UV-I 3,5 C 42 % 44 % 100 % 1018,0 hPa 0,0 l/m 8,4 km/h (2 Bft) 2 min 8,7 km/h (2 Bft)
16.05.2010 17:10 20,0 C 18,7 C 8,4 UV-I 3,7 C 42 % 44 % 100 % 1018,0 hPa 0,0 l/m 8,0 km/h (2 Bft) 2 min 8,7 km/h (2 Bft)
16.05.2010 17:12 20,1 C 18,8 C 8,8 UV-I 3,8 C 42 % 44 % 100 % 1018,8 hPa 0,0 l/m 8,0 km/h (2 Bft) 2 min 12,2 km/h (2 Bft)
16.05.2010 17:14 20,2 C 18,8 C 8,8 UV-I 3,9 C 42 % 44 % 100 % 1018,8 hPa 0,0 l/m 7,6 km/h (2 Bft) 2 min 0,0 km/h (0 Bft)
16.05.2010 17:16 20,2 C 18,8 C 7,6 UV-I 4,1 C 42 % 45 % 100 % 1018,8 hPa 0,0 l/m 6,8 km/h (2 Bft) 2 min 7,4 km/h (2 Bft)
16.05.2010 17:18 20,2 C 18,7 C 7,6 UV-I 4,2 C 42 % 44 % 100 % 1018,8 hPa 0,0 l/m 7,2 km/h (2 Bft) 2 min 9,3 km/h (2 Bft)
16.05.2010 17:20 20,2 C 18,5 C 7,6 UV-I 3,9 C 42 % 44 % 100 % 1018,8 hPa 0,0 l/m 7,6 km/h (2 Bft) 2 min 11,6 km/h (2 Bft)
16.05.2010 17:22 20,2 C 18,4 C 4,3 UV-I 3,5 C 42 % 45 % 100 % 1018,8 hPa 0,0 l/m 7,6 km/h (2 Bft) 2 min 3,9 km/h (1 Bft)
16.05.2010 17:24 20,2 C 18,3 C 4,3 UV-I 2,8 C 42 % 44 % 80 % 1018,8 hPa 0,0 l/m 7,6 km/h (2 Bft) 0 min 7,4 km/h (2 Bft)
16.05.2010 17:26 20,2 C 18,0 C 3,1 UV-I 2,5 C 42 % 46 % 71 % 1018,8 hPa 0,0 l/m 8,0 km/h (2 Bft) 0 min 5,1 km/h (1 Bft)
16.05.2010 17:28 20,2 C 17,9 C 3,1 UV-I 2,1 C 42 % 45 % 60 % 1018,8 hPa 0,0 l/m 7,6 km/h (2 Bft) 0 min 7,7 km/h (2 Bft)
16.05.2010 17:30 20,1 C 17,9 C 3,1 UV-I 1,8 C 42 % 46 % 51 % 1018,8 hPa 0,0 l/m 6,8 km/h (2 Bft) 0 min 7,7 km/h (2 Bft)
16.05.2010 17:32 20,1 C 17,8 C 3,1 UV-I 1,7 C 42 % 47 % 49 % 1017,9 hPa 0,0 l/m 6,4 km/h (2 Bft) 0 min 0,0 km/h (0 Bft)
16.05.2010 17:34 20,0 C 17,8 C 3,1 UV-I 1,5 C 42 % 47 % 43 % 1017,9 hPa 0,0 l/m 5,2 km/h (1 Bft) 0 min 7,4 km/h (2 Bft)
16.05.2010 17:36 20,1 C 17,9 C 4,7 UV-I 1,9 C 42 % 47 % 54 % 1017,9 hPa 0,0 l/m 5,6 km/h (1 Bft) 0 min 9,0 km/h (2 Bft)
16.05.2010 17:38 20,1 C 17,9 C 4,7 UV-I 2,4 C 42 % 46 % 69 % 1017,9 hPa 0,0 l/m 6,4 km/h (2 Bft) 0 min 6,1 km/h (2 Bft)
16.05.2010 17:40 20,1 C 17,9 C 4,7 UV-I 2,8 C 42 % 47 % 80 % 1017,9 hPa 0,0 l/m 6,8 km/h (2 Bft) 0 min 7,4 km/h (2 Bft)
16.05.2010 17:42 20,1 C 17,8 C 4,0 UV-I 2,9 C 42 % 47 % 83 % 1017,9 hPa 0,0 l/m 6,8 km/h (2 Bft) 2 min 4,2 km/h (1 Bft)
16.05.2010 17:44 20,1 C 17,9 C 4,0 UV-I 2,6 C 42 % 47 % 74 % 1017,9 hPa 0,0 l/m 7,2 km/h (2 Bft) 0 min 6,8 km/h (2 Bft)
16.05.2010 17:46 20,1 C 17,9 C 2,9 UV-I 2,1 C 42 % 47 % 60 % 1017,9 hPa 0,0 l/m 7,6 km/h (2 Bft) 0 min 7,7 km/h (2 Bft)
16.05.2010 17:48 20,0 C 17,7 C 2,9 UV-I 1,8 C 42 % 47 % 51 % 1017,9 hPa 0,0 l/m 6,0 km/h (2 Bft) 0 min 10,3 km/h (2 Bft)
16.05.2010 17:50 20,0 C 17,6 C 2,9 UV-I 1,6 C 42 % 47 % 46 % 1017,9 hPa 0,0 l/m 6,0 km/h (2 Bft) 0 min 4,5 km/h (1 Bft)
16.05.2010 17:52 20,0 C 17,6 C 2,5 UV-I 1,2 C 42 % 48 % 34 % 1017,4 hPa 0,0 l/m 5,6 km/h (1 Bft) 0 min 6,4 km/h (2 Bft)
16.05.2010 17:54 20,0 C 17,5 C 2,5 UV-I 1,1 C 42 % 48 % 31 % 1017,4 hPa 0,0 l/m 6,4 km/h (2 Bft) 0 min 6,1 km/h (2 Bft)
16.05.2010 17:56 19,9 C 17,4 C 2,4 UV-I 1,0 C 42 % 48 % 29 % 1017,4 hPa 0,0 l/m 6,8 km/h (2 Bft) 0 min 4,8 km/h (1 Bft)
16.05.2010 17:58 19,9 C 17,3 C 2,4 UV-I 0,9 C 42 % 49 % 26 % 1017,4 hPa 0,0 l/m 7,2 km/h (2 Bft) 0 min 4,2 km/h (1 Bft)
16.05.2010 18:00 19,9 C 17,2 C 2,4 UV-I 0,9 C 42 % 49 % 26 % 1017,4 hPa 0,0 l/m 6,4 km/h (2 Bft) 0 min 6,8 km/h (2 Bft)
16.05.2010 18:02 19,8 C 17,3 C 2,0 UV-I 0,7 C 42 % 49 % 20 % 1017,4 hPa 0,0 l/m 6,4 km/h (2 Bft) 0 min 4,2 km/h (1 Bft)
16.05.2010 18:04 19,8 C 17,3 C 2,0 UV-I 0,6 C 42 % 49 % 17 % 1017,4 hPa 0,0 l/m 6,8 km/h (2 Bft) 0 min 6,1 km/h (2 Bft)
16.05.2010 18:06 19,8 C 17,3 C 2,4 UV-I 0,7 C 42 % 50 % 20 % 1017,4 hPa 0,0 l/m 6,0 km/h (2 Bft) 0 min 3,9 km/h (1 Bft)
16.05.2010 18:08 19,8 C 17,2 C 2,4 UV-I 1,0 C 42 % 49 % 29 % 1017,4 hPa 0,0 l/m 6,0 km/h (2 Bft) 0 min 10,9 km/h (2 Bft)
16.05.2010 18:10 19,7 C 17,3 C 2,4 UV-I 1,1 C 43 % 49 % 31 % 1017,4 hPa 0,0 l/m 7,2 km/h (2 Bft) 0 min 12,2 km/h (2 Bft)
16.05.2010 18:12 19,7 C 17,2 C 3,3 UV-I 1,3 C 43 % 49 % 37 % 1017,4 hPa 0,0 l/m 7,2 km/h (2 Bft) 0 min 3,9 km/h (1 Bft)
16.05.2010 18:14 19,6 C 17,2 C 3,3 UV-I 1,3 C 43 % 50 % 37 % 1017,4 hPa 0,0 l/m 7,2 km/h (2 Bft) 0 min 8,0 km/h (2 Bft)
16.05.2010 18:16 19,6 C 17,2 C 3,1 UV-I 1,2 C 43 % 50 % 34 % 1017,4 hPa 0,0 l/m 7,6 km/h (2 Bft) 0 min 7,4 km/h (2 Bft)
16.05.2010 18:18 19,6 C 17,3 C 3,1 UV-I 1,0 C 43 % 49 % 29 % 1017,4 hPa 0,0 l/m 8,0 km/h (2 Bft) 0 min 10,0 km/h (2 Bft)
16.05.2010 18:20 19,6 C 17,3 C 3,1 UV-I 0,9 C 43 % 50 % 26 % 1017,4 hPa 0,0 l/m 7,6 km/h (2 Bft) 0 min 4,8 km/h (1 Bft)
16.05.2010 18:22 19,6 C 17,1 C 2,7 UV-I 1,0 C 43 % 50 % 29 % 1017,4 hPa 0,0 l/m 6,4 km/h (2 Bft) 0 min 3,2 km/h (1 Bft)
16.05.2010 18:24 19,6 C 17,2 C 2,7 UV-I 0,8 C 43 % 50 % 23 % 1017,4 hPa 0,0 l/m 6,8 km/h (2 Bft) 0 min 11,9 km/h (2 Bft)
16.05.2010 18:26 19,5 C 17,1 C 2,5 UV-I 0,8 C 43 % 50 % 23 % 1017,4 hPa 0,0 l/m 6,4 km/h (2 Bft) 0 min 6,1 km/h (2 Bft)
16.05.2010 18:28 19,5 C 17,1 C 2,5 UV-I 0,8 C 43 % 50 % 23 % 1017,4 hPa 0,0 l/m 6,4 km/h (2 Bft) 0 min 7,4 km/h (2 Bft)
16.05.2010 18:30 19,5 C 17,2 C 2,5 UV-I 0,6 C 43 % 51 % 17 % 1017,4 hPa 0,0 l/m 5,6 km/h (1 Bft) 0 min 4,5 km/h (1 Bft)
16.05.2010 18:32 19,5 C 17,2 C 2,4 UV-I 0,6 C 43 % 51 % 17 % 1017,2 hPa 0,0 l/m 5,2 km/h (1 Bft) 0 min 10,3 km/h (2 Bft)
16.05.2010 18:34 19,4 C 17,2 C 2,4 UV-I 0,6 C 43 % 51 % 17 % 1017,2 hPa 0,0 l/m 5,2 km/h (1 Bft) 0 min 3,5 km/h (1 Bft)
16.05.2010 18:36 19,4 C 17,1 C 2,7 UV-I 0,6 C 43 % 51 % 17 % 1017,2 hPa 0,0 l/m 5,2 km/h (1 Bft) 0 min 3,5 km/h (1 Bft)
16.05.2010 18:38 19,4 C 17,1 C 2,7 UV-I 0,5 C 43 % 51 % 14 % 1017,2 hPa 0,0 l/m 4,4 km/h (1 Bft) 0 min 0,0 km/h (0 Bft)
16.05.2010 18:40 19,4 C 17,0 C 2,7 UV-I 0,4 C 43 % 51 % 11 % 1017,2 hPa 0,0 l/m 4,0 km/h (1 Bft) 0 min 4,2 km/h (1 Bft)
16.05.2010 18:42 19,4 C 16,9 C 1,9 UV-I 0,4 C 43 % 51 % 11 % 1017,2 hPa 0,0 l/m 4,8 km/h (1 Bft) 0 min 14,5 km/h (3 Bft)
16.05.2010 18:44 19,4 C 17,0 C 1,9 UV-I 0,3 C 43 % 51 % 9 % 1017,2 hPa 0,0 l/m 4,8 km/h (1 Bft) 0 min 4,2 km/h (1 Bft)
16.05.2010 18:46 19,2 C 16,9 C 1,9 UV-I 0,4 C 43 % 51 % 11 % 1017,2 hPa 0,0 l/m 4,8 km/h (1 Bft) 0 min 10,9 km/h (2 Bft)
16.05.2010 18:48 19,2 C 16,8 C 1,9 UV-I 0,5 C 44 % 51 % 14 % 1017,2 hPa 0,0 l/m 5,2 km/h (1 Bft) 0 min 0,0 km/h (0 Bft)
16.05.2010 18:50 19,3 C 16,8 C 1,9 UV-I 0,6 C 44 % 51 % 17 % 1017,2 hPa 0,0 l/m 5,2 km/h (1 Bft) 0 min 4,2 km/h (1 Bft)
16.05.2010 18:52 19,3 C 16,9 C 1,9 UV-I 0,6 C 44 % 52 % 17 % 1017,2 hPa 0,0 l/m 4,4 km/h (1 Bft) 0 min 0,0 km/h (0 Bft)
16.05.2010 18:54 19,2 C 16,9 C 1,9 UV-I 0,7 C 44 % 51 % 20 % 1017,2 hPa 0,0 l/m 2,8 km/h (1 Bft) 0 min 0,0 km/h (0 Bft)
16.05.2010 18:56 19,2 C 16,9 C 1,3 UV-I 0,7 C 44 % 51 % 20 % 1017,2 hPa 0,0 l/m 3,6 km/h (1 Bft) 0 min 6,1 km/h (2 Bft)
16.05.2010 18:58 19,2 C 16,9 C 1,3 UV-I 0,5 C 44 % 51 % 14 % 1017,2 hPa 0,0 l/m 3,6 km/h (1 Bft) 0 min 4,2 km/h (1 Bft)
16.05.2010 19:00 19,2 C 16,8 C 1,3 UV-I 0,6 C 44 % 51 % 17 % 1017,2 hPa 0,0 l/m 4,0 km/h (1 Bft) 0 min 5,8 km/h (2 Bft)
16.05.2010 19:02 19,2 C 16,8 C 0,7 UV-I 0,5 C 44 % 51 % 14 % 1017,2 hPa 0,0 l/m 4,4 km/h (1 Bft) 0 min 0,0 km/h (0 Bft)
16.05.2010 19:04 19,2 C 16,7 C 0,7 UV-I 0,4 C 44 % 50 % 11 % 1017,2 hPa 0,0 l/m 5,6 km/h (1 Bft) 0 min 10,3 km/h (2 Bft)
16.05.2010 19:06 19,1 C 16,7 C 0,7 UV-I 0,4 C 44 % 51 % 11 % 1017,2 hPa 0,0 l/m 6,4 km/h (2 Bft) 0 min 10,6 km/h (2 Bft)
16.05.2010 19:08 19,1 C 16,7 C 0,7 UV-I 0,4 C 44 % 51 % 11 % 1017,2 hPa 0,0 l/m 5,2 km/h (1 Bft) 0 min 3,5 km/h (1 Bft)
16.05.2010 19:10 19,1 C 16,7 C 0,7 UV-I 0,4 C 44 % 51 % 11 % 1017,2 hPa 0,0 l/m 4,8 km/h (1 Bft) 0 min 4,8 km/h (1 Bft)
16.05.2010 19:12 19,1 C 16,7 C 1,2 UV-I 0,4 C 44 % 51 % 11 % 1016,9 hPa 0,0 l/m 4,8 km/h (1 Bft) 0 min 10,3 km/h (2 Bft)
16.05.2010 19:14 19,0 C 16,7 C 1,2 UV-I 0,4 C 44 % 51 % 11 % 1016,9 hPa 0,0 l/m 5,6 km/h (1 Bft) 0 min 0,0 km/h (0 Bft)
16.05.2010 19:16 19,0 C 16,7 C 1,4 UV-I 0,5 C 44 % 51 % 14 % 1016,9 hPa 0,0 l/m 5,2 km/h (1 Bft) 0 min 0,0 km/h (0 Bft)
16.05.2010 19:18 19,0 C 16,7 C 1,4 UV-I 0,5 C 44 % 51 % 14 % 1016,9 hPa 0,0 l/m 6,0 km/h (2 Bft) 0 min 6,4 km/h (2 Bft)
16.05.2010 19:20 19,0 C 16,7 C 1,4 UV-I 0,4 C 44 % 50 % 11 % 1016,9 hPa 0,0 l/m 7,6 km/h (2 Bft) 0 min 9,7 km/h (2 Bft)
16.05.2010 19:22 19,0 C 16,7 C 0,8 UV-I 0,3 C 44 % 51 % 9 % 1016,9 hPa 0,0 l/m 7,2 km/h (2 Bft) 0 min 4,2 km/h (1 Bft)
16.05.2010 19:24 19,0 C 16,7 C 0,8 UV-I 0,2 C 44 % 51 % 6 % 1016,9 hPa 0,0 l/m 6,4 km/h (2 Bft) 0 min 4,8 km/h (1 Bft)
16.05.2010 19:26 19,0 C 16,6 C 1,2 UV-I 0,2 C 44 % 50 % 6 % 1016,9 hPa 0,0 l/m 6,8 km/h (2 Bft) 0 min 13,5 km/h (3 Bft)
16.05.2010 19:30 18,9 C 16,7 C 1,2 UV-I 0,0 C 44 % 50 % 0 % 1016,9 hPa 0,0 l/m 6,4 km/h (2 Bft) 0 min 8,7 km/h (2 Bft)
16.05.2010 19:32 18,9 C 16,6 C 1,0 UV-I 0,0 C 44 % 50 % 0 % 1017,0 hPa 0,0 l/m 5,6 km/h (1 Bft) 0 min 4,2 km/h (1 Bft)
16.05.2010 19:34 18,9 C 16,5 C 1,0 UV-I 0,0 C 44 % 50 % 0 % 1017,0 hPa 0,0 l/m 5,6 km/h (1 Bft) 0 min 13,8 km/h (3 Bft)
16.05.2010 19:36 18,9 C 16,4 C 1,2 UV-I 0,0 C 44 % 50 % 0 % 1017,0 hPa 0,0 l/m 4,8 km/h (1 Bft) 0 min 0,0 km/h (0 Bft)
16.05.2010 19:38 18,9 C 16,4 C 1,2 UV-I 0,0 C 44 % 50 % 0 % 1017,0 hPa 0,0 l/m 4,8 km/h (1 Bft) 0 min 8,4 km/h (2 Bft)
16.05.2010 19:40 18,8 C 16,5 C 1,2 UV-I 0,0 C 44 % 49 % 0 % 1017,0 hPa 0,0 l/m 4,4 km/h (1 Bft) 0 min 6,4 km/h (2 Bft)
16.05.2010 19:42 18,8 C 16,5 C 0,6 UV-I 0,0 C 44 % 50 % 0 % 1017,0 hPa 0,0 l/m 4,0 km/h (1 Bft) 0 min 0,0 km/h (0 Bft)
16.05.2010 19:44 18,8 C 16,5 C 0,6 UV-I 0,0 C 45 % 50 % 0 % 1017,0 hPa 0,0 l/m 4,4 km/h (1 Bft) 0 min 5,1 km/h (1 Bft)
16.05.2010 19:46 18,8 C 16,4 C 0,4 UV-I 0,0 C 45 % 50 % 0 % 1017,0 hPa 0,0 l/m 4,4 km/h (1 Bft) 0 min 0,0 km/h (0 Bft)
16.05.2010 19:48 18,8 C 16,4 C 0,4 UV-I 0,0 C 45 % 50 % 0 % 1017,0 hPa 0,0 l/m 5,2 km/h (1 Bft) 0 min 3,9 km/h (1 Bft)
16.05.2010 19:50 18,8 C 16,5 C 0,4 UV-I 0,0 C 45 % 50 % 0 % 1017,0 hPa 0,0 l/m 4,8 km/h (1 Bft) 0 min 7,4 km/h (2 Bft)
16.05.2010 19:52 18,8 C 16,4 C 0,9 UV-I 0,0 C 45 % 50 % 0 % 1017,2 hPa 0,0 l/m 4,4 km/h (1 Bft) 0 min 4,8 km/h (1 Bft)
16.05.2010 19:54 18,8 C 16,4 C 0,9 UV-I 0,0 C 45 % 51 % 0 % 1017,2 hPa 0,0 l/m 3,6 km/h (1 Bft) 0 min 0,0 km/h (0 Bft)
16.05.2010 19:56 18,7 C 16,4 C 0,6 UV-I 0,0 C 45 % 50 % 0 % 1017,2 hPa 0,0 l/m 2,8 km/h (1 Bft) 0 min 8,7 km/h (2 Bft)
16.05.2010 19:58 18,7 C 16,3 C 0,6 UV-I 0,0 C 45 % 51 % 0 % 1017,2 hPa 0,0 l/m 2,8 km/h (1 Bft) 0 min 4,2 km/h (1 Bft)
16.05.2010 20:00 18,7 C 16,3 C 0,6 UV-I 0,0 C 45 % 51 % 0 % 1017,2 hPa 0,0 l/m 2,8 km/h (1 Bft) 0 min 3,9 km/h (1 Bft)
16.05.2010 20:02 18,7 C 16,3 C 0,5 UV-I 0,0 C 45 % 50 % 0 % 1017,2 hPa 0,0 l/m 2,4 km/h (1 Bft) 0 min 6,8 km/h (2 Bft)
16.05.2010 20:04 18,7 C 16,3 C 0,5 UV-I 0,0 C 45 % 50 % 0 % 1017,2 hPa 0,0 l/m 3,6 km/h (1 Bft) 0 min 13,2 km/h (3 Bft)
16.05.2010 20:06 18,7 C 16,2 C 0,5 UV-I 0,0 C 45 % 50 % 0 % 1017,2 hPa 0,0 l/m 4,0 km/h (1 Bft) 0 min 5,5 km/h (1 Bft)
16.05.2010 20:08 18,7 C 16,1 C 0,5 UV-I 0,0 C 45 % 49 % 0 % 1017,2 hPa 0,0 l/m 6,0 km/h (2 Bft) 0 min 16,1 km/h (3 Bft)
16.05.2010 20:10 18,6 C 16,0 C 0,5 UV-I 0,0 C 45 % 50 % 0 % 1017,2 hPa 0,0 l/m 5,6 km/h (1 Bft) 0 min 3,5 km/h (1 Bft)
16.05.2010 20:12 18,6 C 16,0 C 0,3 UV-I 0,0 C 45 % 51 % 0 % 1017,4 hPa 0,0 l/m 5,2 km/h (1 Bft) 0 min 3,9 km/h (1 Bft)
16.05.2010 20:14 18,6 C 16,0 C 0,3 UV-I 0,0 C 45 % 51 % 0 % 1017,4 hPa 0,0 l/m 5,6 km/h (1 Bft) 0 min 6,4 km/h (2 Bft)
16.05.2010 20:16 18,6 C 15,8 C 0,2 UV-I 0,0 C 45 % 51 % 0 % 1017,4 hPa 0,0 l/m 5,2 km/h (1 Bft) 0 min 3,9 km/h (1 Bft)
16.05.2010 20:18 18,6 C 15,9 C 0,2 UV-I 0,0 C 45 % 51 % 0 % 1017,4 hPa 0,0 l/m 4,8 km/h (1 Bft) 0 min 5,8 km/h (2 Bft)
16.05.2010 20:20 18,6 C 15,7 C 0,2 UV-I 0,0 C 45 % 51 % 0 % 1017,4 hPa 0,0 l/m 3,2 km/h (1 Bft) 0 min 3,5 km/h (1 Bft)
16.05.2010 20:22 18,6 C 15,7 C 0,2 UV-I 0,0 C 45 % 51 % 0 % 1017,4 hPa 0,0 l/m 2,8 km/h (1 Bft) 0 min 0,0 km/h (0 Bft)
16.05.2010 20:24 18,6 C 15,6 C 0,2 UV-I 0,0 C 45 % 52 % 0 % 1017,4 hPa 0,0 l/m 2,4 km/h (1 Bft) 0 min 8,0 km/h (2 Bft)
16.05.2010 20:26 18,5 C 15,6 C 0,1 UV-I 0,0 C 45 % 52 % 0 % 1017,4 hPa 0,0 l/m 2,0 km/h (1 Bft) 0 min 0,0 km/h (0 Bft)
16.05.2010 20:28 18,5 C 15,5 C 0,1 UV-I 0,0 C 45 % 52 % 0 % 1017,4 hPa 0,0 l/m 1,6 km/h (1 Bft) 0 min 0,0 km/h (0 Bft)
16.05.2010 20:30 18,5 C 15,5 C 0,1 UV-I 0,0 C 45 % 52 % 0 % 1017,4 hPa 0,0 l/m 0,8 km/h (0 Bft) 0 min 0,0 km/h (0 Bft)
16.05.2010 20:32 18,5 C 15,4 C 0,1 UV-I 0,0 C 45 % 52 % 0 % 1017,4 hPa 0,0 l/m 0,4 km/h (0 Bft) 0 min 0,0 km/h (0 Bft)
16.05.2010 20:34 18,4 C 15,5 C 0,1 UV-I 0,0 C 45 % 52 % 0 % 1017,4 hPa 0,0 l/m 0,8 km/h (0 Bft) 0 min 0,0 km/h (0 Bft)
16.05.2010 20:36 18,4 C 15,5 C 0,1 UV-I 0,0 C 45 % 53 % 0 % 1017,4 hPa 0,0 l/m 0,4 km/h (0 Bft) 0 min 3,5 km/h (1 Bft)
16.05.2010 20:38 18,4 C 15,3 C 0,1 UV-I 0,0 C 45 % 52 % 0 % 1017,4 hPa 0,0 l/m 0,8 km/h (0 Bft) 0 min 0,0 km/h (0 Bft)
16.05.2010 20:40 18,4 C 15,2 C 0,1 UV-I 0,0 C 45 % 53 % 0 % 1017,4 hPa 0,0 l/m 1,6 km/h (1 Bft) 0 min 4,8 km/h (1 Bft)
16.05.2010 20:42 18,4 C 15,3 C 0,0 UV-I 0,0 C 45 % 53 % 0 % 1017,4 hPa 0,0 l/m 2,0 km/h (1 Bft) 0 min 0,0 km/h (0 Bft)
16.05.2010 20:44 18,4 C 15,2 C 0,0 UV-I 0,0 C 45 % 53 % 0 % 1017,4 hPa 0,0 l/m 1,6 km/h (1 Bft) 0 min 0,0 km/h (0 Bft)
16.05.2010 20:46 18,4 C 15,1 C 0,0 UV-I 0,0 C 45 % 53 % 0 % 1017,4 hPa 0,0 l/m 1,6 km/h (1 Bft) 0 min 0,0 km/h (0 Bft)
16.05.2010 20:48 18,4 C 15,0 C 0,0 UV-I 0,0 C 46 % 53 % 0 % 1017,4 hPa 0,0 l/m 1,6 km/h (1 Bft) 0 min 3,5 km/h (1 Bft)
16.05.2010 20:50 18,2 C 14,9 C 0,0 UV-I 0,0 C 46 % 53 % 0 % 1017,4 hPa 0,0 l/m 1,2 km/h (1 Bft) 0 min 0,0 km/h (0 Bft)
16.05.2010 20:52 18,2 C 14,9 C 0,0 UV-I 0,0 C 46 % 53 % 0 % 1017,8 hPa 0,0 l/m 0,4 km/h (0 Bft) 0 min 0,0 km/h (0 Bft)
16.05.2010 20:54 18,3 C 14,8 C 0,0 UV-I 0,0 C 46 % 54 % 0 % 1017,8 hPa 0,0 l/m 0,4 km/h (0 Bft) 0 min 0,0 km/h (0 Bft)
16.05.2010 20:56 18,3 C 14,8 C 0,0 UV-I 0,0 C 46 % 54 % 0 % 1017,8 hPa 0,0 l/m 0,4 km/h (0 Bft) 0 min 0,0 km/h (0 Bft)
16.05.2010 20:58 18,2 C 14,7 C 0,0 UV-I 0,0 C 46 % 54 % 0 % 1017,8 hPa 0,0 l/m 0,4 km/h (0 Bft) 0 min 0,0 km/h (0 Bft)
16.05.2010 21:00 18,2 C 14,6 C 0,0 UV-I 0,0 C 46 % 54 % 0 % 1017,8 hPa 0,0 l/m 0,0 km/h (0 Bft) 0 min 0,0 km/h (0 Bft)
16.05.2010 21:02 18,2 C 14,6 C 0,0 UV-I 0,0 C 46 % 55 % 0 % 1017,8 hPa 0,0 l/m 0,0 km/h (0 Bft) 0 min 0,0 km/h (0 Bft)
16.05.2010 21:04 18,2 C 14,4 C 0,0 UV-I 0,0 C 46 % 55 % 0 % 1017,8 hPa 0,0 l/m 0,0 km/h (0 Bft) 0 min 0,0 km/h (0 Bft)
16.05.2010 21:06 18,2 C 14,4 C 0,0 UV-I 0,0 C 46 % 55 % 0 % 1017,8 hPa 0,0 l/m 0,0 km/h (0 Bft) 0 min 0,0 km/h (0 Bft)
16.05.2010 21:08 18,2 C 14,3 C 0,0 UV-I 0,0 C 46 % 56 % 0 % 1017,8 hPa 0,0 l/m 0,0 km/h (0 Bft) 0 min 0,0 km/h (0 Bft)
16.05.2010 21:10 18,1 C 14,2 C 0,0 UV-I 0,0 C 46 % 56 % 0 % 1017,8 hPa 0,0 l/m 0,0 km/h (0 Bft) 0 min 0,0 km/h (0 Bft)
16.05.2010 21:12 18,1 C 14,1 C 0,0 UV-I 0,0 C 46 % 56 % 0 % 1017,8 hPa 0,0 l/m 0,0 km/h (0 Bft) 0 min 0,0 km/h (0 Bft)
16.05.2010 21:14 18,1 C 14,1 C 0,0 UV-I 0,0 C 46 % 56 % 0 % 1017,8 hPa 0,0 l/m 0,0 km/h (0 Bft) 0 min 0,0 km/h (0 Bft)
16.05.2010 21:16 18,1 C 14,1 C 0,0 UV-I 0,0 C 46 % 57 % 0 % 1017,8 hPa 0,0 l/m 0,0 km/h (0 Bft) 0 min 0,0 km/h (0 Bft)
16.05.2010 21:18 18,1 C 13,9 C 0,0 UV-I 0,0 C 46 % 57 % 0 % 1017,8 hPa 0,0 l/m 0,0 km/h (0 Bft) 0 min 0,0 km/h (0 Bft)
16.05.2010 21:20 18,0 C 13,9 C 0,0 UV-I 0,0 C 46 % 57 % 0 % 1017,8 hPa 0,0 l/m 0,0 km/h (0 Bft) 0 min 0,0 km/h (0 Bft)
16.05.2010 21:24 18,0 C 13,7 C 0,0 UV-I 0,0 C 46 % 58 % 0 % 1017,8 hPa 0,0 l/m 0,0 km/h (0 Bft) 0 min 0,0 km/h (0 Bft)
16.05.2010 21:26 18,0 C 13,6 C 0,0 UV-I 0,0 C 46 % 58 % 0 % 1017,8 hPa 0,0 l/m 0,0 km/h (0 Bft) 0 min 0,0 km/h (0 Bft)
16.05.2010 21:28 18,0 C 13,6 C 0,0 UV-I 0,0 C 46 % 58 % 0 % 1017,8 hPa 0,0 l/m 0,0 km/h (0 Bft) 0 min 0,0 km/h (0 Bft)
16.05.2010 21:30 18,0 C 13,5 C 0,0 UV-I 0,0 C 47 % 58 % 0 % 1017,8 hPa 0,0 l/m 0,0 km/h (0 Bft) 0 min 0,0 km/h (0 Bft)
16.05.2010 21:32 18,0 C 13,4 C 0,0 UV-I 0,0 C 47 % 58 % 0 % 1017,9 hPa 0,0 l/m 0,0 km/h (0 Bft) 0 min 0,0 km/h (0 Bft)
16.05.2010 21:34 18,0 C 13,3 C 0,0 UV-I 0,0 C 46 % 59 % 0 % 1017,9 hPa 0,0 l/m 0,0 km/h (0 Bft) 0 min 0,0 km/h (0 Bft)
16.05.2010 21:36 17,9 C 13,2 C 0,0 UV-I 0,0 C 47 % 59 % 0 % 1017,9 hPa 0,0 l/m 0,4 km/h (0 Bft) 0 min 4,5 km/h (1 Bft)
16.05.2010 21:38 17,9 C 13,2 C 0,0 UV-I 0,0 C 47 % 60 % 0 % 1017,9 hPa 0,0 l/m 1,6 km/h (1 Bft) 0 min 9,0 km/h (2 Bft)
16.05.2010 21:40 17,9 C 13,2 C 0,0 UV-I 0,0 C 47 % 60 % 0 % 1017,9 hPa 0,0 l/m 2,8 km/h (1 Bft) 0 min 8,4 km/h (2 Bft)
16.05.2010 21:42 17,9 C 13,2 C 0,0 UV-I 0,0 C 47 % 59 % 0 % 1017,9 hPa 0,0 l/m 4,8 km/h (1 Bft) 0 min 13,8 km/h (3 Bft)
16.05.2010 21:44 17,8 C 13,3 C 0,0 UV-I 0,0 C 47 % 58 % 0 % 1017,9 hPa 0,0 l/m 6,4 km/h (2 Bft) 0 min 7,7 km/h (2 Bft)
16.05.2010 21:46 17,8 C 13,3 C 0,0 UV-I 0,0 C 47 % 58 % 0 % 1017,9 hPa 0,0 l/m 7,6 km/h (2 Bft) 0 min 6,1 km/h (2 Bft)
16.05.2010 21:48 17,8 C 13,2 C 0,0 UV-I 0,0 C 47 % 58 % 0 % 1017,9 hPa 0,0 l/m 8,8 km/h (2 Bft) 0 min 7,7 km/h (2 Bft)
16.05.2010 21:50 17,8 C 13,2 C 0,0 UV-I 0,0 C 47 % 58 % 0 % 1017,9 hPa 0,0 l/m 7,6 km/h (2 Bft) 0 min 0,0 km/h (0 Bft)
16.05.2010 21:52 17,8 C 13,1 C 0,0 UV-I 0,0 C 47 % 58 % 0 % 1018,1 hPa 0,0 l/m 6,4 km/h (2 Bft) 0 min 5,5 km/h (1 Bft)
16.05.2010 21:54 17,8 C 13,1 C 0,0 UV-I 0,0 C 47 % 58 % 0 % 1018,1 hPa 0,0 l/m 4,8 km/h (1 Bft) 0 min 0,0 km/h (0 Bft)
16.05.2010 21:56 17,8 C 13,0 C 0,0 UV-I 0,0 C 47 % 58 % 0 % 1018,1 hPa 0,0 l/m 4,0 km/h (1 Bft) 0 min 0,0 km/h (0 Bft)
16.05.2010 21:58 17,8 C 13,0 C 0,0 UV-I 0,0 C 47 % 58 % 0 % 1018,1 hPa 0,0 l/m 2,4 km/h (1 Bft) 0 min 0,0 km/h (0 Bft)
16.05.2010 22:00 17,7 C 12,9 C 0,0 UV-I 0,0 C 47 % 58 % 0 % 1018,1 hPa 0,0 l/m 1,2 km/h (1 Bft) 0 min 0,0 km/h (0 Bft)
16.05.2010 22:02 17,7 C 12,8 C 0,0 UV-I 0,0 C 47 % 59 % 0 % 1018,1 hPa 0,0 l/m 1,2 km/h (1 Bft) 0 min 0,0 km/h (0 Bft)
16.05.2010 22:04 17,7 C 12,8 C 0,0 UV-I 0,0 C 47 % 59 % 0 % 1018,1 hPa 0,0 l/m 0,4 km/h (0 Bft) 0 min 0,0 km/h (0 Bft)
16.05.2010 22:06 17,7 C 12,7 C 0,0 UV-I 0,0 C 47 % 59 % 0 % 1018,1 hPa 0,0 l/m 0,0 km/h (0 Bft) 0 min 0,0 km/h (0 Bft)
16.05.2010 22:08 17,7 C 12,6 C 0,0 UV-I 0,0 C 47 % 60 % 0 % 1018,1 hPa 0,0 l/m 0,0 km/h (0 Bft) 0 min 0,0 km/h (0 Bft)
16.05.2010 22:10 17,7 C 12,5 C 0,0 UV-I 0,0 C 47 % 60 % 0 % 1018,1 hPa 0,0 l/m 0,0 km/h (0 Bft) 0 min 0,0 km/h (0 Bft)
16.05.2010 22:12 17,7 C 12,4 C 0,0 UV-I 0,0 C 47 % 60 % 0 % 1018,5 hPa 0,0 l/m 0,0 km/h (0 Bft) 0 min 0,0 km/h (0 Bft)
16.05.2010 22:14 17,6 C 12,4 C 0,0 UV-I 0,0 C 47 % 60 % 0 % 1018,5 hPa 0,0 l/m 0,0 km/h (0 Bft) 0 min 0,0 km/h (0 Bft)
16.05.2010 22:16 17,6 C 12,3 C 0,0 UV-I 0,0 C 47 % 60 % 0 % 1018,5 hPa 0,0 l/m 0,0 km/h (0 Bft) 0 min 0,0 km/h (0 Bft)
16.05.2010 22:18 17,6 C 12,2 C 0,0 UV-I 0,0 C 47 % 60 % 0 % 1018,5 hPa 0,0 l/m 0,0 km/h (0 Bft) 0 min 0,0 km/h (0 Bft)
16.05.2010 22:20 17,6 C 12,1 C 0,0 UV-I 0,0 C 47 % 61 % 0 % 1018,5 hPa 0,0 l/m 0,0 km/h (0 Bft) 0 min 0,0 km/h (0 Bft)
16.05.2010 22:22 17,6 C 12,0 C 0,0 UV-I 0,0 C 47 % 61 % 0 % 1018,5 hPa 0,0 l/m 0,0 km/h (0 Bft) 0 min 0,0 km/h (0 Bft)
16.05.2010 22:24 17,6 C 12,1 C 0,0 UV-I 0,0 C 47 % 61 % 0 % 1018,5 hPa 0,0 l/m 0,0 km/h (0 Bft) 0 min 0,0 km/h (0 Bft)
16.05.2010 22:26 17,6 C 11,9 C 0,0 UV-I 0,0 C 48 % 62 % 0 % 1018,5 hPa 0,0 l/m 0,0 km/h (0 Bft) 0 min 0,0 km/h (0 Bft)
16.05.2010 22:30 17,6 C 11,7 C 0,0 UV-I 0,0 C 48 % 62 % 0 % 1018,5 hPa 0,0 l/m 0,0 km/h (0 Bft) 0 min 0,0 km/h (0 Bft)
16.05.2010 22:32 17,6 C 11,6 C 0,0 UV-I 0,0 C 48 % 62 % 0 % 1018,4 hPa 0,0 l/m 0,0 km/h (0 Bft) 0 min 0,0 km/h (0 Bft)
16.05.2010 22:34 17,6 C 11,6 C 0,0 UV-I 0,0 C 48 % 63 % 0 % 1018,4 hPa 0,0 l/m 0,0 km/h (0 Bft) 0 min 0,0 km/h (0 Bft)
16.05.2010 22:36 17,5 C 11,5 C 0,0 UV-I 0,0 C 48 % 63 % 0 % 1018,4 hPa 0,0 l/m 0,0 km/h (0 Bft) 0 min 0,0 km/h (0 Bft)
16.05.2010 22:38 17,5 C 11,5 C 0,0 UV-I 0,0 C 48 % 63 % 0 % 1018,4 hPa 0,0 l/m 0,0 km/h (0 Bft) 0 min 0,0 km/h (0 Bft)
16.05.2010 22:40 17,5 C 11,3 C 0,0 UV-I 0,0 C 48 % 63 % 0 % 1018,4 hPa 0,0 l/m 0,0 km/h (0 Bft) 0 min 0,0 km/h (0 Bft)
16.05.2010 22:42 17,5 C 11,2 C 0,0 UV-I 0,0 C 48 % 64 % 0 % 1018,4 hPa 0,0 l/m 0,0 km/h (0 Bft) 0 min 0,0 km/h (0 Bft)
16.05.2010 22:44 17,5 C 11,2 C 0,0 UV-I 0,0 C 48 % 64 % 0 % 1018,4 hPa 0,0 l/m 0,0 km/h (0 Bft) 0 min 0,0 km/h (0 Bft)
16.05.2010 22:46 17,5 C 11,1 C 0,0 UV-I 0,0 C 48 % 64 % 0 % 1018,4 hPa 0,0 l/m 0,0 km/h (0 Bft) 0 min 0,0 km/h (0 Bft)
16.05.2010 22:48 17,5 C 11,1 C 0,0 UV-I 0,0 C 48 % 65 % 0 % 1018,4 hPa 0,0 l/m 0,0 km/h (0 Bft) 0 min 0,0 km/h (0 Bft)
16.05.2010 22:50 17,5 C 11,1 C 0,0 UV-I 0,0 C 48 % 65 % 0 % 1018,4 hPa 0,0 l/m 0,0 km/h (0 Bft) 0 min 0,0 km/h (0 Bft)
16.05.2010 22:52 17,4 C 10,9 C 0,0 UV-I 0,0 C 48 % 66 % 0 % 1018,6 hPa 0,0 l/m 0,0 km/h (0 Bft) 0 min 0,0 km/h (0 Bft)
16.05.2010 22:54 17,4 C 10,8 C 0,0 UV-I 0,0 C 48 % 66 % 0 % 1018,6 hPa 0,0 l/m 0,0 km/h (0 Bft) 0 min 0,0 km/h (0 Bft)
16.05.2010 22:56 17,4 C 10,8 C 0,0 UV-I 0,0 C 48 % 66 % 0 % 1018,6 hPa 0,0 l/m 0,0 km/h (0 Bft) 0 min 0,0 km/h (0 Bft)
16.05.2010 22:58 17,4 C 10,8 C 0,0 UV-I 0,0 C 48 % 67 % 0 % 1018,6 hPa 0,0 l/m 0,0 km/h (0 Bft) 0 min 0,0 km/h (0 Bft)
16.05.2010 23:00 17,4 C 10,7 C 0,0 UV-I 0,0 C 48 % 67 % 0 % 1018,6 hPa 0,0 l/m 0,0 km/h (0 Bft) 0 min 0,0 km/h (0 Bft)
16.05.2010 23:02 17,4 C 10,6 C 0,0 UV-I 0,0 C 48 % 67 % 0 % 1018,6 hPa 0,0 l/m 0,0 km/h (0 Bft) 0 min 0,0 km/h (0 Bft)
16.05.2010 23:04 17,4 C 10,7 C 0,0 UV-I 0,0 C 48 % 68 % 0 % 1018,6 hPa 0,0 l/m 0,0 km/h (0 Bft) 0 min 0,0 km/h (0 Bft)
16.05.2010 23:06 17,4 C 10,6 C 0,0 UV-I 0,0 C 48 % 68 % 0 % 1018,6 hPa 0,0 l/m 0,0 km/h (0 Bft) 0 min 0,0 km/h (0 Bft)
16.05.2010 23:08 17,4 C 10,5 C 0,0 UV-I 0,0 C 48 % 68 % 0 % 1018,6 hPa 0,0 l/m 0,0 km/h (0 Bft) 0 min 0,0 km/h (0 Bft)
16.05.2010 23:10 17,2 C 10,4 C 0,0 UV-I 0,0 C 48 % 68 % 0 % 1018,6 hPa 0,0 l/m 0,0 km/h (0 Bft) 0 min 0,0 km/h (0 Bft)
16.05.2010 23:12 17,2 C 10,4 C 0,0 UV-I 0,0 C 48 % 69 % 0 % 1018,7 hPa 0,0 l/m 0,0 km/h (0 Bft) 0 min 0,0 km/h (0 Bft)
16.05.2010 23:14 17,4 C 10,3 C 0,0 UV-I 0,0 C 48 % 69 % 0 % 1018,7 hPa 0,0 l/m 0,0 km/h (0 Bft) 0 min 0,0 km/h (0 Bft)
16.05.2010 23:16 17,2 C 10,3 C 0,0 UV-I 0,0 C 48 % 69 % 0 % 1018,7 hPa 0,0 l/m 0,0 km/h (0 Bft) 0 min 0,0 km/h (0 Bft)
16.05.2010 23:18 17,2 C 10,3 C 0,0 UV-I 0,0 C 48 % 69 % 0 % 1018,7 hPa 0,0 l/m 0,0 km/h (0 Bft) 0 min 0,0 km/h (0 Bft)
16.05.2010 23:20 17,2 C 10,2 C 0,0 UV-I 0,0 C 48 % 69 % 0 % 1018,7 hPa 0,0 l/m 0,0 km/h (0 Bft) 0 min 0,0 km/h (0 Bft)
16.05.2010 23:22 17,2 C 10,1 C 0,0 UV-I 0,0 C 48 % 70 % 0 % 1018,7 hPa 0,0 l/m 0,0 km/h (0 Bft) 0 min 0,0 km/h (0 Bft)
16.05.2010 23:24 17,3 C 10,0 C 0,0 UV-I 0,0 C 48 % 70 % 0 % 1018,7 hPa 0,0 l/m 0,0 km/h (0 Bft) 0 min 0,0 km/h (0 Bft)
16.05.2010 23:26 17,3 C 10,1 C 0,0 UV-I 0,0 C 49 % 70 % 0 % 1018,7 hPa 0,0 l/m 0,0 km/h (0 Bft) 0 min 0,0 km/h (0 Bft)
16.05.2010 23:28 17,3 C 9,9 C 0,0 UV-I 0,0 C 49 % 71 % 0 % 1018,7 hPa 0,0 l/m 0,0 km/h (0 Bft) 0 min 0,0 km/h (0 Bft)
16.05.2010 23:30 17,3 C 9,9 C 0,0 UV-I 0,0 C 49 % 71 % 0 % 1018,7 hPa 0,0 l/m 0,0 km/h (0 Bft) 0 min 0,0 km/h (0 Bft)
16.05.2010 23:32 17,2 C 9,7 C 0,0 UV-I 0,0 C 49 % 71 % 0 % 1018,8 hPa 0,0 l/m 0,0 km/h (0 Bft) 0 min 0,0 km/h (0 Bft)
16.05.2010 23:34 17,2 C 9,7 C 0,0 UV-I 0,0 C 49 % 72 % 0 % 1018,8 hPa 0,0 l/m 0,0 km/h (0 Bft) 0 min 0,0 km/h (0 Bft)
16.05.2010 23:36 17,2 C 9,6 C 0,0 UV-I 0,0 C 49 % 72 % 0 % 1018,8 hPa 0,0 l/m 0,0 km/h (0 Bft) 0 min 0,0 km/h (0 Bft)
16.05.2010 23:38 17,2 C 9,6 C 0,0 UV-I 0,0 C 49 % 72 % 0 % 1018,8 hPa 0,0 l/m 0,0 km/h (0 Bft) 0 min 0,0 km/h (0 Bft)
16.05.2010 23:40 17,2 C 9,5 C 0,0 UV-I 0,0 C 49 % 72 % 0 % 1018,8 hPa 0,0 l/m 0,0 km/h (0 Bft) 0 min 0,0 km/h (0 Bft)
16.05.2010 23:42 17,2 C 9,5 C 0,0 UV-I 0,0 C 49 % 73 % 0 % 1018,8 hPa 0,0 l/m 0,0 km/h (0 Bft) 0 min 0,0 km/h (0 Bft)
16.05.2010 23:44 17,2 C 9,5 C 0,0 UV-I 0,0 C 49 % 73 % 0 % 1018,8 hPa 0,0 l/m 0,0 km/h (0 Bft) 0 min 0,0 km/h (0 Bft)
16.05.2010 23:46 17,2 C 9,4 C 0,0 UV-I 0,0 C 49 % 73 % 0 % 1018,8 hPa 0,0 l/m 0,0 km/h (0 Bft) 0 min 0,0 km/h (0 Bft)
16.05.2010 23:48 17,2 C 9,3 C 0,0 UV-I 0,0 C 49 % 73 % 0 % 1018,8 hPa 0,0 l/m 0,0 km/h (0 Bft) 0 min 0,0 km/h (0 Bft)
16.05.2010 23:50 17,2 C 9,2 C 0,0 UV-I 0,0 C 49 % 73 % 0 % 1018,8 hPa 0,0 l/m 0,0 km/h (0 Bft) 0 min 0,0 km/h (0 Bft)
16.05.2010 23:52 17,2 C 9,2 C 0,0 UV-I 0,0 C 49 % 73 % 0 % 1018,8 hPa 0,0 l/m 0,0 km/h (0 Bft) 0 min 0,0 km/h (0 Bft)
16.05.2010 23:54 17,2 C 9,2 C 0,0 UV-I 0,0 C 49 % 74 % 0 % 1018,8 hPa 0,0 l/m 0,0 km/h (0 Bft) 0 min 0,0 km/h (0 Bft)
16.05.2010 23:56 17,2 C 9,1 C 0,0 UV-I 0,0 C 49 % 74 % 0 % 1018,8 hPa 0,0 l/m 0,0 km/h (0 Bft) 0 min 0,0 km/h (0 Bft)
16.05.2010 23:58 17,1 C 9,1 C 0,0 UV-I 0,0 C 49 % 75 % 0 % 1018,8 hPa 0,0 l/m 0,0 km/h (0 Bft) 0 min 0,0 km/h (0 Bft)
_ Min-Zeit 06:42 06:16 00:00 00:00 16:43 16:13 00:00 00:00 - 00:32 - 00:00
Minimum _ 15,4 C 8,3 C 0,0 UV-I 0,0 C 42 % 40 % 0 % 1012,6 hPa - 0,0 km/h (0 Bft) - 0,0 km/h (0 Bft)
_ Max-Zeit 17:14 17:12 10:22 09:22 05:40 03:33 08:58 17:12 00:00 16:28 08:56 10:52
Maximum _ 20,2 C 18,8 C 12,9 UV-I 7,3 C 54 % 87 % 100 % 1018,8 hPa 0,0 l/m 12,8 km/h
S (3 Bft)
2 min 21,2 km/h
SW (4 Bft)
Durchschnitt _ 17,2 C 12,9 C 3,0 UV-I 1,6 C 49 % 65 % 36 % 1015,6 hPa #0,0 l/m 4,0 km/h (1 Bft) #3:18 h 4,8 km/h (1 Bft)
© 2012 W. Hausmann